Wetterdaten: Dienstag, 12.11.2013
Datum Zeit Temp. Aussen +5cm Feuchte Auss Luftdruck Regen Sonnenschein Regendauer UV Solar Windben
12.11.2013 00:00 4,6 C 3,9 C 93 % 1028,4 hPa 0,0 l/m 0 min 0 min 0,0 UV-I 0 W/m 10,3 km/h (2 Bft)
12.11.2013 00:02 4,6 C 3,9 C 93 % 1028,4 hPa 0,0 l/m 0 min 0 min 0,0 UV-I 0 W/m 5,1 km/h (1 Bft)
12.11.2013 00:06 4,6 C 3,9 C 93 % 1028,3 hPa 0,0 l/m 0 min 0 min 0,0 UV-I 0 W/m 12,9 km/h (3 Bft)
12.11.2013 00:08 4,6 C 3,9 C 93 % 1028,2 hPa 0,0 l/m 0 min 0 min 0,0 UV-I 0 W/m 7,7 km/h (2 Bft)
12.11.2013 00:10 4,6 C 3,9 C 93 % 1028,2 hPa 0,0 l/m 0 min 0 min 0,0 UV-I 0 W/m 7,7 km/h (2 Bft)
12.11.2013 00:12 4,6 C 3,9 C 93 % 1028,2 hPa 0,0 l/m 0 min 0 min 0,0 UV-I 0 W/m 15,4 km/h (3 Bft)
12.11.2013 00:14 4,6 C 3,9 C 93 % 1028,2 hPa 0,0 l/m 0 min 0 min 0,0 UV-I 0 W/m 10,3 km/h (2 Bft)
12.11.2013 00:16 4,6 C 3,3 C 93 % 1028,2 hPa 0,0 l/m 0 min 0 min 0,0 UV-I 0 W/m 10,3 km/h (2 Bft)
12.11.2013 00:18 4,6 C 3,3 C 93 % 1028,1 hPa 0,0 l/m 0 min 0 min 0,0 UV-I 0 W/m 10,3 km/h (2 Bft)
12.11.2013 00:20 4,6 C 3,3 C 93 % 1028,1 hPa 0,0 l/m 0 min 0 min 0,0 UV-I 0 W/m 12,9 km/h (3 Bft)
12.11.2013 00:22 4,6 C 3,3 C 93 % 1028,0 hPa 0,0 l/m 0 min 0 min 0,0 UV-I 0 W/m 10,3 km/h (2 Bft)
12.11.2013 00:24 4,6 C 3,3 C 93 % 1028,0 hPa 0,0 l/m 0 min 0 min 0,0 UV-I 0 W/m 10,3 km/h (2 Bft)
12.11.2013 00:26 4,6 C 3,3 C 93 % 1028,0 hPa 0,0 l/m 0 min 0 min 0,0 UV-I 0 W/m 2,6 km/h (1 Bft)
12.11.2013 00:28 4,6 C 3,3 C 93 % 1028,0 hPa 0,0 l/m 0 min 0 min 0,0 UV-I 0 W/m 2,6 km/h (1 Bft)
12.11.2013 00:30 4,6 C 3,3 C 93 % 1028,1 hPa 0,0 l/m 0 min 0 min 0,0 UV-I 0 W/m 12,9 km/h (3 Bft)
12.11.2013 00:32 4,5 C 3,3 C 93 % 1028,1 hPa 0,0 l/m 0 min 0 min 0,0 UV-I 0 W/m 7,7 km/h (2 Bft)
12.11.2013 00:34 4,5 C 3,3 C 93 % 1028,1 hPa 0,0 l/m 0 min 0 min 0,0 UV-I 0 W/m 7,7 km/h (2 Bft)
12.11.2013 00:36 4,5 C 3,3 C 93 % 1028,1 hPa 0,0 l/m 0 min 0 min 0,0 UV-I 0 W/m 0,0 km/h (0 Bft)
12.11.2013 00:38 4,5 C 3,3 C 93 % 1028,1 hPa 0,0 l/m 0 min 0 min 0,0 UV-I 0 W/m 12,9 km/h (3 Bft)
12.11.2013 00:40 4,4 C 3,3 C 93 % 1028,1 hPa 0,0 l/m 0 min 0 min 0,0 UV-I 0 W/m 7,7 km/h (2 Bft)
12.11.2013 00:42 4,4 C 3,3 C 93 % 1028,0 hPa 0,0 l/m 0 min 0 min 0,0 UV-I 0 W/m 7,7 km/h (2 Bft)
12.11.2013 00:44 4,4 C 3,3 C 93 % 1028,0 hPa 0,0 l/m 0 min 0 min 0,0 UV-I 0 W/m 10,3 km/h (2 Bft)
12.11.2013 00:46 4,4 C 3,3 C 93 % 1028,0 hPa 0,0 l/m 0 min 0 min 0,0 UV-I 0 W/m 10,3 km/h (2 Bft)
12.11.2013 00:48 4,4 C 3,3 C 93 % 1027,9 hPa 0,0 l/m 0 min 0 min 0,0 UV-I 0 W/m 10,3 km/h (2 Bft)
12.11.2013 00:50 4,4 C 3,3 C 93 % 1027,9 hPa 0,0 l/m 0 min 0 min 0,0 UV-I 0 W/m 7,7 km/h (2 Bft)
12.11.2013 00:52 4,4 C 3,3 C 93 % 1027,9 hPa 0,0 l/m 0 min 0 min 0,0 UV-I 0 W/m 10,3 km/h (2 Bft)
12.11.2013 00:54 4,4 C 3,3 C 93 % 1028,0 hPa 0,0 l/m 0 min 0 min 0,0 UV-I 0 W/m 15,4 km/h (3 Bft)
12.11.2013 00:56 4,3 C 3,3 C 93 % 1028,0 hPa 0,0 l/m 0 min 0 min 0,0 UV-I 0 W/m 12,9 km/h (3 Bft)
12.11.2013 00:58 4,3 C 3,3 C 93 % 1028,0 hPa 0,0 l/m 0 min 0 min 0,0 UV-I 0 W/m 12,9 km/h (3 Bft)
12.11.2013 01:00 4,3 C 3,3 C 93 % 1028,0 hPa 0,0 l/m 0 min 0 min 0,0 UV-I 0 W/m 12,9 km/h (3 Bft)
12.11.2013 01:02 4,3 C 3,3 C 93 % 1028,0 hPa 0,0 l/m 0 min 0 min 0,0 UV-I 0 W/m 0,0 km/h (0 Bft)
12.11.2013 01:06 4,3 C 3,3 C 93 % 1028,0 hPa 0,0 l/m 0 min 0 min 0,0 UV-I 0 W/m 0,0 km/h (0 Bft)
12.11.2013 01:08 4,3 C 3,3 C 93 % 1028,0 hPa 0,0 l/m 0 min 0 min 0,0 UV-I 0 W/m 10,3 km/h (2 Bft)
12.11.2013 01:10 4,2 C 3,3 C 93 % 1028,1 hPa 0,0 l/m 0 min 0 min 0,0 UV-I 0 W/m 12,9 km/h (3 Bft)
12.11.2013 01:12 4,2 C 3,3 C 93 % 1028,0 hPa 0,0 l/m 0 min 0 min 0,0 UV-I 0 W/m 5,1 km/h (1 Bft)
12.11.2013 01:14 4,2 C 3,3 C 93 % 1027,9 hPa 0,0 l/m 0 min 0 min 0,0 UV-I 0 W/m 10,3 km/h (2 Bft)
12.11.2013 01:16 4,2 C 3,3 C 93 % 1027,9 hPa 0,0 l/m 0 min 0 min 0,0 UV-I 0 W/m 10,3 km/h (2 Bft)
12.11.2013 01:18 4,2 C 3,3 C 93 % 1027,9 hPa 0,0 l/m 0 min 0 min 0,0 UV-I 0 W/m 12,9 km/h (3 Bft)
12.11.2013 01:20 4,2 C 3,3 C 93 % 1027,9 hPa 0,0 l/m 0 min 0 min 0,0 UV-I 0 W/m 5,1 km/h (1 Bft)
12.11.2013 01:22 4,2 C 3,3 C 93 % 1027,9 hPa 0,0 l/m 0 min 0 min 0,0 UV-I 0 W/m 15,4 km/h (3 Bft)
12.11.2013 01:24 4,2 C 3,3 C 93 % 1027,9 hPa 0,0 l/m 0 min 0 min 0,0 UV-I 0 W/m 10,3 km/h (2 Bft)
12.11.2013 01:26 4,2 C 3,3 C 93 % 1027,7 hPa 0,0 l/m 0 min 0 min 0,0 UV-I 0 W/m 15,4 km/h (3 Bft)
12.11.2013 01:28 4,2 C 3,3 C 93 % 1027,6 hPa 0,0 l/m 0 min 0 min 0,0 UV-I 0 W/m 7,7 km/h (2 Bft)
12.11.2013 01:30 4,2 C 3,3 C 93 % 1027,7 hPa 0,0 l/m 0 min 0 min 0,0 UV-I 0 W/m 12,9 km/h (3 Bft)
12.11.2013 01:32 4,2 C 3,3 C 93 % 1027,6 hPa 0,0 l/m 0 min 0 min 0,0 UV-I 0 W/m 10,3 km/h (2 Bft)
12.11.2013 01:34 4,2 C 3,3 C 93 % 1027,7 hPa 0,0 l/m 0 min 0 min 0,0 UV-I 0 W/m 10,3 km/h (2 Bft)
12.11.2013 01:36 4,2 C 3,3 C 93 % 1027,6 hPa 0,0 l/m 0 min 0 min 0,0 UV-I 0 W/m 12,9 km/h (3 Bft)
12.11.2013 01:38 4,2 C 3,3 C 93 % 1027,6 hPa 0,0 l/m 0 min 0 min 0,0 UV-I 0 W/m 12,9 km/h (3 Bft)
12.11.2013 01:40 4,2 C 3,3 C 93 % 1027,6 hPa 0,0 l/m 0 min 0 min 0,0 UV-I 0 W/m 10,3 km/h (2 Bft)
12.11.2013 01:42 4,2 C 3,3 C 93 % 1027,6 hPa 0,0 l/m 0 min 0 min 0,0 UV-I 0 W/m 15,4 km/h (3 Bft)
12.11.2013 01:44 4,3 C 3,3 C 93 % 1027,5 hPa 0,0 l/m 0 min 0 min 0,0 UV-I 0 W/m 10,3 km/h (2 Bft)
12.11.2013 01:46 4,3 C 3,3 C 93 % 1027,5 hPa 0,0 l/m 0 min 0 min 0,0 UV-I 0 W/m 7,7 km/h (2 Bft)
12.11.2013 01:48 4,3 C 3,3 C 93 % 1027,6 hPa 0,0 l/m 0 min 0 min 0,0 UV-I 0 W/m 12,9 km/h (3 Bft)
12.11.2013 01:50 4,3 C 3,3 C 93 % 1027,6 hPa 0,0 l/m 0 min 0 min 0,0 UV-I 0 W/m 10,3 km/h (2 Bft)
12.11.2013 01:52 4,3 C 3,3 C 93 % 1027,5 hPa 0,0 l/m 0 min 0 min 0,0 UV-I 0 W/m 12,9 km/h (3 Bft)
12.11.2013 01:54 4,3 C 3,3 C 93 % 1027,5 hPa 0,0 l/m 0 min 0 min 0,0 UV-I 0 W/m 12,9 km/h (3 Bft)
12.11.2013 01:56 4,3 C 3,3 C 92 % 1027,5 hPa 0,0 l/m 0 min 0 min 0,0 UV-I 0 W/m 12,9 km/h (3 Bft)
12.11.2013 01:58 4,3 C 3,3 C 92 % 1027,5 hPa 0,0 l/m 0 min 0 min 0,0 UV-I 0 W/m 10,3 km/h (2 Bft)
12.11.2013 02:00 4,3 C 3,3 C 92 % 1027,4 hPa 0,0 l/m 0 min 0 min 0,0 UV-I 0 W/m 7,7 km/h (2 Bft)
12.11.2013 02:02 4,3 C 3,3 C 92 % 1027,4 hPa 0,0 l/m 0 min 0 min 0,0 UV-I 0 W/m 18,0 km/h (3 Bft)
12.11.2013 02:06 4,3 C 3,3 C 92 % 1027,4 hPa 0,0 l/m 0 min 0 min 0,0 UV-I 0 W/m 12,9 km/h (3 Bft)
12.11.2013 02:08 4,3 C 3,3 C 92 % 1027,5 hPa 0,0 l/m 0 min 0 min 0,0 UV-I 0 W/m 15,4 km/h (3 Bft)
12.11.2013 02:10 4,3 C 3,3 C 92 % 1027,4 hPa 0,0 l/m 0 min 0 min 0,0 UV-I 0 W/m 15,4 km/h (3 Bft)
12.11.2013 02:12 4,3 C 3,3 C 92 % 1027,3 hPa 0,0 l/m 0 min 0 min 0,0 UV-I 0 W/m 15,4 km/h (3 Bft)
12.11.2013 02:14 4,3 C 3,3 C 92 % 1027,3 hPa 0,0 l/m 0 min 0 min 0,0 UV-I 0 W/m 7,7 km/h (2 Bft)
12.11.2013 02:16 4,3 C 3,3 C 92 % 1027,3 hPa 0,0 l/m 0 min 0 min 0,0 UV-I 0 W/m 15,4 km/h (3 Bft)
12.11.2013 02:18 4,3 C 3,3 C 92 % 1027,1 hPa 0,0 l/m 0 min 0 min 0,0 UV-I 0 W/m 12,9 km/h (3 Bft)
12.11.2013 02:20 4,3 C 3,3 C 92 % 1027,1 hPa 0,0 l/m 0 min 0 min 0,0 UV-I 0 W/m 12,9 km/h (3 Bft)
12.11.2013 02:22 4,3 C 3,3 C 92 % 1027,1 hPa 0,0 l/m 0 min 0 min 0,0 UV-I 0 W/m 12,9 km/h (3 Bft)
12.11.2013 02:24 4,3 C 3,3 C 92 % 1027,1 hPa 0,0 l/m 0 min 0 min 0,0 UV-I 0 W/m 10,3 km/h (2 Bft)
12.11.2013 02:26 4,3 C 3,3 C 92 % 1027,1 hPa 0,0 l/m 0 min 0 min 0,0 UV-I 0 W/m 10,3 km/h (2 Bft)
12.11.2013 02:28 4,3 C 3,3 C 92 % 1027,1 hPa 0,0 l/m 0 min 0 min 0,0 UV-I 0 W/m 10,3 km/h (2 Bft)
12.11.2013 02:30 4,3 C 3,3 C 92 % 1027,0 hPa 0,0 l/m 0 min 0 min 0,0 UV-I 0 W/m 10,3 km/h (2 Bft)
12.11.2013 02:32 4,3 C 3,3 C 92 % 1027,1 hPa 0,0 l/m 0 min 0 min 0,0 UV-I 0 W/m 10,3 km/h (2 Bft)
12.11.2013 02:34 4,3 C 3,3 C 92 % 1027,0 hPa 0,0 l/m 0 min 0 min 0,0 UV-I 0 W/m 10,3 km/h (2 Bft)
12.11.2013 02:36 4,3 C 3,3 C 92 % 1027,0 hPa 0,0 l/m 0 min 0 min 0,0 UV-I 0 W/m 10,3 km/h (2 Bft)
12.11.2013 02:38 4,4 C 3,3 C 92 % 1027,0 hPa 0,0 l/m 0 min 0 min 0,0 UV-I 0 W/m 18,0 km/h (3 Bft)
12.11.2013 02:40 4,4 C 3,3 C 92 % 1027,0 hPa 0,0 l/m 0 min 0 min 0,0 UV-I 0 W/m 7,7 km/h (2 Bft)
12.11.2013 02:42 4,4 C 3,3 C 92 % 1027,0 hPa 0,0 l/m 0 min 0 min 0,0 UV-I 0 W/m 15,4 km/h (3 Bft)
12.11.2013 02:44 4,4 C 3,3 C 92 % 1027,0 hPa 0,0 l/m 0 min 0 min 0,0 UV-I 0 W/m 12,9 km/h (3 Bft)
12.11.2013 02:46 4,4 C 3,3 C 92 % 1027,0 hPa 0,0 l/m 0 min 0 min 0,0 UV-I 0 W/m 7,7 km/h (2 Bft)
12.11.2013 02:48 4,4 C 3,3 C 92 % 1027,0 hPa 0,0 l/m 0 min 0 min 0,0 UV-I 0 W/m 5,1 km/h (1 Bft)
12.11.2013 02:50 4,4 C 3,3 C 92 % 1026,9 hPa 0,0 l/m 0 min 0 min 0,0 UV-I 0 W/m 15,4 km/h (3 Bft)
12.11.2013 02:52 4,4 C 3,3 C 92 % 1026,9 hPa 0,0 l/m 0 min 0 min 0,0 UV-I 0 W/m 15,4 km/h (3 Bft)
12.11.2013 02:54 4,4 C 3,3 C 92 % 1026,8 hPa 0,0 l/m 0 min 0 min 0,0 UV-I 0 W/m 15,4 km/h (3 Bft)
12.11.2013 02:56 4,4 C 3,3 C 92 % 1026,8 hPa 0,0 l/m 0 min 0 min 0,0 UV-I 0 W/m 15,4 km/h (3 Bft)
12.11.2013 02:58 4,4 C 3,3 C 92 % 1026,8 hPa 0,0 l/m 0 min 0 min 0,0 UV-I 0 W/m 12,9 km/h (3 Bft)
12.11.2013 03:00 4,4 C 3,3 C 92 % 1026,8 hPa 0,0 l/m 0 min 0 min 0,0 UV-I 0 W/m 15,4 km/h (3 Bft)
12.11.2013 03:02 4,4 C 3,3 C 92 % 1026,7 hPa 0,0 l/m 0 min 0 min 0,0 UV-I 0 W/m 12,9 km/h (3 Bft)
12.11.2013 03:06 4,4 C 3,3 C 92 % 1026,7 hPa 0,0 l/m 0 min 0 min 0,0 UV-I 0 W/m 18,0 km/h (3 Bft)
12.11.2013 03:08 4,4 C 3,3 C 92 % 1026,7 hPa 0,0 l/m 0 min 0 min 0,0 UV-I 0 W/m 20,6 km/h (4 Bft)
12.11.2013 03:10 4,4 C 3,3 C 92 % 1026,6 hPa 0,0 l/m 0 min 0 min 0,0 UV-I 0 W/m 18,0 km/h (3 Bft)
12.11.2013 03:12 4,4 C 3,3 C 92 % 1026,7 hPa 0,0 l/m 0 min 0 min 0,0 UV-I 0 W/m 18,0 km/h (3 Bft)
12.11.2013 03:14 4,4 C 3,3 C 92 % 1026,6 hPa 0,0 l/m 0 min 0 min 0,0 UV-I 0 W/m 10,3 km/h (2 Bft)
12.11.2013 03:16 4,4 C 3,3 C 92 % 1026,6 hPa 0,0 l/m 0 min 0 min 0,0 UV-I 0 W/m 18,0 km/h (3 Bft)
12.11.2013 03:18 4,4 C 3,3 C 92 % 1026,6 hPa 0,0 l/m 0 min 0 min 0,0 UV-I 0 W/m 20,6 km/h (4 Bft)
12.11.2013 03:20 4,4 C 3,3 C 92 % 1026,6 hPa 0,0 l/m 0 min 0 min 0,0 UV-I 0 W/m 20,6 km/h (4 Bft)
12.11.2013 03:22 4,3 C 3,3 C 92 % 1026,6 hPa 0,0 l/m 0 min 0 min 0,0 UV-I 0 W/m 10,3 km/h (2 Bft)
12.11.2013 03:24 4,3 C 3,3 C 92 % 1026,6 hPa 0,0 l/m 0 min 0 min 0,0 UV-I 0 W/m 7,7 km/h (2 Bft)
12.11.2013 03:26 4,3 C 3,3 C 92 % 1026,5 hPa 0,0 l/m 0 min 0 min 0,0 UV-I 0 W/m 20,6 km/h (4 Bft)
12.11.2013 03:28 4,3 C 3,3 C 92 % 1026,5 hPa 0,0 l/m 0 min 0 min 0,0 UV-I 0 W/m 10,3 km/h (2 Bft)
12.11.2013 03:30 4,3 C 3,3 C 92 % 1026,5 hPa 0,0 l/m 0 min 0 min 0,0 UV-I 0 W/m 12,9 km/h (3 Bft)
12.11.2013 03:32 4,2 C 3,3 C 92 % 1026,5 hPa 0,0 l/m 0 min 0 min 0,0 UV-I 0 W/m 18,0 km/h (3 Bft)
12.11.2013 03:34 4,2 C 3,3 C 92 % 1026,3 hPa 0,0 l/m 0 min 0 min 0,0 UV-I 0 W/m 10,3 km/h (2 Bft)
12.11.2013 03:36 4,2 C 3,3 C 92 % 1026,3 hPa 0,0 l/m 0 min 0 min 0,0 UV-I 0 W/m 10,3 km/h (2 Bft)
12.11.2013 03:38 4,2 C 3,3 C 92 % 1026,3 hPa 0,0 l/m 0 min 0 min 0,0 UV-I 0 W/m 12,9 km/h (3 Bft)
12.11.2013 03:40 4,2 C 3,3 C 92 % 1026,2 hPa 0,0 l/m 0 min 0 min 0,0 UV-I 0 W/m 20,6 km/h (4 Bft)
12.11.2013 03:42 4,2 C 3,3 C 92 % 1026,2 hPa 0,0 l/m 0 min 0 min 0,0 UV-I 0 W/m 18,0 km/h (3 Bft)
12.11.2013 03:44 4,2 C 3,3 C 92 % 1026,0 hPa 0,0 l/m 0 min 0 min 0,0 UV-I 0 W/m 10,3 km/h (2 Bft)
12.11.2013 03:46 4,2 C 3,3 C 92 % 1026,1 hPa 0,0 l/m 0 min 0 min 0,0 UV-I 0 W/m 18,0 km/h (3 Bft)
12.11.2013 03:48 4,2 C 3,3 C 92 % 1026,0 hPa 0,0 l/m 0 min 0 min 0,0 UV-I 0 W/m 15,4 km/h (3 Bft)
12.11.2013 03:50 4,2 C 3,3 C 92 % 1026,0 hPa 0,0 l/m 0 min 0 min 0,0 UV-I 0 W/m 15,4 km/h (3 Bft)
12.11.2013 03:52 4,2 C 3,3 C 92 % 1026,0 hPa 0,0 l/m 0 min 0 min 0,0 UV-I 0 W/m 20,6 km/h (4 Bft)
12.11.2013 03:54 4,2 C 3,3 C 92 % 1026,0 hPa 0,0 l/m 0 min 0 min 0,0 UV-I 0 W/m 23,2 km/h (4 Bft)
12.11.2013 03:56 4,2 C 3,3 C 92 % 1026,0 hPa 0,0 l/m 0 min 0 min 0,0 UV-I 0 W/m 20,6 km/h (4 Bft)
12.11.2013 03:58 4,2 C 3,3 C 92 % 1025,9 hPa 0,0 l/m 0 min 0 min 0,0 UV-I 0 W/m 12,9 km/h (3 Bft)
12.11.2013 04:00 4,2 C 3,3 C 92 % 1025,9 hPa 0,0 l/m 0 min 0 min 0,0 UV-I 0 W/m 18,0 km/h (3 Bft)
12.11.2013 04:02 4,2 C 3,3 C 92 % 1025,8 hPa 0,0 l/m 0 min 0 min 0,0 UV-I 0 W/m 15,4 km/h (3 Bft)
12.11.2013 04:06 4,2 C 3,3 C 92 % 1025,7 hPa 0,0 l/m 0 min 0 min 0,0 UV-I 0 W/m 18,0 km/h (3 Bft)
12.11.2013 04:08 4,2 C 3,3 C 92 % 1025,7 hPa 0,0 l/m 0 min 0 min 0,0 UV-I 0 W/m 18,0 km/h (3 Bft)
12.11.2013 04:10 4,2 C 3,3 C 92 % 1025,7 hPa 0,0 l/m 0 min 0 min 0,0 UV-I 0 W/m 15,4 km/h (3 Bft)
12.11.2013 04:12 4,2 C 3,3 C 92 % 1025,6 hPa 0,0 l/m 0 min 0 min 0,0 UV-I 0 W/m 18,0 km/h (3 Bft)
12.11.2013 04:14 4,2 C 3,3 C 92 % 1025,6 hPa 0,0 l/m 0 min 0 min 0,0 UV-I 0 W/m 12,9 km/h (3 Bft)
12.11.2013 04:16 4,2 C 3,3 C 92 % 1025,6 hPa 0,0 l/m 0 min 0 min 0,0 UV-I 0 W/m 10,3 km/h (2 Bft)
12.11.2013 04:18 4,2 C 3,3 C 92 % 1025,5 hPa 0,0 l/m 0 min 0 min 0,0 UV-I 0 W/m 15,4 km/h (3 Bft)
12.11.2013 04:20 4,2 C 3,3 C 92 % 1025,4 hPa 0,0 l/m 0 min 0 min 0,0 UV-I 0 W/m 18,0 km/h (3 Bft)
12.11.2013 04:22 4,2 C 3,3 C 92 % 1025,4 hPa 0,0 l/m 0 min 0 min 0,0 UV-I 0 W/m 10,3 km/h (2 Bft)
12.11.2013 04:24 4,2 C 3,3 C 92 % 1025,4 hPa 0,0 l/m 0 min 0 min 0,0 UV-I 0 W/m 18,0 km/h (3 Bft)
12.11.2013 04:26 4,2 C 3,3 C 92 % 1025,4 hPa 0,0 l/m 0 min 0 min 0,0 UV-I 0 W/m 18,0 km/h (3 Bft)
12.11.2013 04:28 4,2 C 3,3 C 92 % 1025,4 hPa 0,0 l/m 0 min 0 min 0,0 UV-I 0 W/m 18,0 km/h (3 Bft)
12.11.2013 04:30 4,2 C 3,3 C 92 % 1025,4 hPa 0,0 l/m 0 min 0 min 0,0 UV-I 0 W/m 15,4 km/h (3 Bft)
12.11.2013 04:32 4,2 C 3,3 C 97 % 1025,4 hPa 0,0 l/m 0 min 0 min 0,0 UV-I 0 W/m 20,6 km/h (4 Bft)
12.11.2013 04:34 4,2 C 3,3 C 97 % 1025,4 hPa 0,0 l/m 0 min 0 min 0,0 UV-I 0 W/m 18,0 km/h (3 Bft)
12.11.2013 04:36 4,2 C 3,3 C 91 % 1025,4 hPa 0,0 l/m 0 min 0 min 0,0 UV-I 0 W/m 23,2 km/h (4 Bft)
12.11.2013 04:38 4,2 C 3,3 C 92 % 1025,5 hPa 0,0 l/m 0 min 0 min 0,0 UV-I 0 W/m 23,2 km/h (4 Bft)
12.11.2013 04:40 4,1 C 3,3 C 92 % 1025,7 hPa 0,0 l/m 0 min 0 min 0,0 UV-I 0 W/m 10,3 km/h (2 Bft)
12.11.2013 04:42 4,1 C 3,3 C 92 % 1025,6 hPa 0,0 l/m 0 min 0 min 0,0 UV-I 0 W/m 12,9 km/h (3 Bft)
12.11.2013 04:44 4,1 C 2,8 C 91 % 1025,7 hPa 0,0 l/m 0 min 0 min 0,0 UV-I 0 W/m 15,4 km/h (3 Bft)
12.11.2013 04:46 4,1 C 2,8 C 91 % 1025,5 hPa 0,0 l/m 0 min 0 min 0,0 UV-I 0 W/m 20,6 km/h (4 Bft)
12.11.2013 04:48 4,1 C 2,8 C 91 % 1025,7 hPa 0,0 l/m 0 min 0 min 0,0 UV-I 0 W/m 15,4 km/h (3 Bft)
12.11.2013 04:50 4,0 C 2,8 C 91 % 1025,7 hPa 0,0 l/m 0 min 0 min 0,0 UV-I 0 W/m 12,9 km/h (3 Bft)
12.11.2013 04:52 4,0 C 2,8 C 91 % 1025,6 hPa 0,0 l/m 0 min 0 min 0,0 UV-I 0 W/m 15,4 km/h (3 Bft)
12.11.2013 04:54 4,0 C 2,8 C 91 % 1025,6 hPa 0,0 l/m 0 min 0 min 0,0 UV-I 0 W/m 10,3 km/h (2 Bft)
12.11.2013 04:56 3,9 C 2,8 C 91 % 1025,6 hPa 0,0 l/m 0 min 0 min 0,0 UV-I 0 W/m 10,3 km/h (2 Bft)
12.11.2013 04:58 3,9 C 2,8 C 91 % 1025,5 hPa 0,0 l/m 0 min 0 min 0,0 UV-I 0 W/m 15,4 km/h (3 Bft)
12.11.2013 05:00 3,9 C 2,8 C 91 % 1025,5 hPa 0,0 l/m 0 min 0 min 0,0 UV-I 0 W/m 10,3 km/h (2 Bft)
12.11.2013 05:02 3,9 C 2,8 C 91 % 1025,4 hPa 0,0 l/m 0 min 0 min 0,0 UV-I 0 W/m 12,9 km/h (3 Bft)
12.11.2013 05:06 3,9 C 2,8 C 92 % 1025,3 hPa 0,0 l/m 0 min 0 min 0,0 UV-I 0 W/m 12,9 km/h (3 Bft)
12.11.2013 05:08 3,8 C 2,8 C 92 % 1025,2 hPa 0,0 l/m 0 min 0 min 0,0 UV-I 0 W/m 12,9 km/h (3 Bft)
12.11.2013 05:10 3,8 C 2,8 C 92 % 1025,2 hPa 0,0 l/m 0 min 0 min 0,0 UV-I 0 W/m 10,3 km/h (2 Bft)
12.11.2013 05:12 3,8 C 2,8 C 92 % 1025,3 hPa 0,0 l/m 0 min 0 min 0,0 UV-I 0 W/m 0,0 km/h (0 Bft)
12.11.2013 05:14 3,8 C 2,8 C 92 % 1025,2 hPa 0,0 l/m 0 min 0 min 0,0 UV-I 0 W/m 12,9 km/h (3 Bft)
12.11.2013 05:16 3,8 C 2,8 C 91 % 1025,3 hPa 0,0 l/m 0 min 0 min 0,0 UV-I 0 W/m 15,4 km/h (3 Bft)
12.11.2013 05:18 3,7 C 2,8 C 92 % 1025,2 hPa 0,0 l/m 0 min 0 min 0,0 UV-I 0 W/m 10,3 km/h (2 Bft)
12.11.2013 05:20 3,7 C 2,8 C 92 % 1025,3 hPa 0,0 l/m 0 min 0 min 0,0 UV-I 0 W/m 12,9 km/h (3 Bft)
12.11.2013 05:22 3,7 C 2,8 C 92 % 1025,3 hPa 0,0 l/m 0 min 0 min 0,0 UV-I 0 W/m 7,7 km/h (2 Bft)
12.11.2013 05:24 3,7 C 2,8 C 92 % 1025,3 hPa 0,0 l/m 0 min 0 min 0,0 UV-I 0 W/m 7,7 km/h (2 Bft)
12.11.2013 05:26 3,7 C 2,8 C 92 % 1025,2 hPa 0,0 l/m 0 min 0 min 0,0 UV-I 0 W/m 18,0 km/h (3 Bft)
12.11.2013 05:28 3,7 C 2,8 C 92 % 1025,2 hPa 0,0 l/m 0 min 0 min 0,0 UV-I 0 W/m 7,7 km/h (2 Bft)
12.11.2013 05:30 3,7 C 2,8 C 92 % 1025,2 hPa 0,0 l/m 0 min 0 min 0,0 UV-I 0 W/m 7,7 km/h (2 Bft)
12.11.2013 05:32 3,7 C 2,8 C 92 % 1025,2 hPa 0,0 l/m 0 min 0 min 0,0 UV-I 0 W/m 18,0 km/h (3 Bft)
12.11.2013 05:34 3,7 C 2,8 C 92 % 1025,2 hPa 0,0 l/m 0 min 0 min 0,0 UV-I 0 W/m 15,4 km/h (3 Bft)
12.11.2013 05:36 3,7 C 2,8 C 92 % 1025,3 hPa 0,0 l/m 0 min 0 min 0,0 UV-I 0 W/m 10,3 km/h (2 Bft)
12.11.2013 05:38 3,7 C 2,8 C 92 % 1025,3 hPa 0,0 l/m 0 min 0 min 0,0 UV-I 0 W/m 7,7 km/h (2 Bft)
12.11.2013 05:40 3,7 C 2,8 C 92 % 1025,3 hPa 0,0 l/m 0 min 0 min 0,0 UV-I 0 W/m 18,0 km/h (3 Bft)
12.11.2013 05:42 3,7 C 2,8 C 92 % 1025,3 hPa 0,0 l/m 0 min 0 min 0,0 UV-I 0 W/m 10,3 km/h (2 Bft)
12.11.2013 05:44 3,8 C 2,8 C 92 % 1025,2 hPa 0,0 l/m 0 min 0 min 0,0 UV-I 0 W/m 12,9 km/h (3 Bft)
12.11.2013 05:46 3,8 C 2,8 C 92 % 1025,2 hPa 0,0 l/m 0 min 0 min 0,0 UV-I 0 W/m 10,3 km/h (2 Bft)
12.11.2013 05:48 3,8 C 2,8 C 92 % 1025,2 hPa 0,0 l/m 0 min 0 min 0,0 UV-I 0 W/m 7,7 km/h (2 Bft)
12.11.2013 05:50 3,8 C 2,8 C 92 % 1025,1 hPa 0,0 l/m 0 min 0 min 0,0 UV-I 0 W/m 10,3 km/h (2 Bft)
12.11.2013 05:52 3,8 C 2,8 C 92 % 1025,2 hPa 0,0 l/m 0 min 0 min 0,0 UV-I 0 W/m 15,4 km/h (3 Bft)
12.11.2013 05:54 3,8 C 2,8 C 92 % 1025,2 hPa 0,0 l/m 0 min 0 min 0,0 UV-I 0 W/m 18,0 km/h (3 Bft)
12.11.2013 05:56 3,8 C 2,8 C 92 % 1025,2 hPa 0,0 l/m 0 min 0 min 0,0 UV-I 0 W/m 18,0 km/h (3 Bft)
12.11.2013 05:58 3,8 C 2,8 C 92 % 1025,1 hPa 0,0 l/m 0 min 0 min 0,0 UV-I 0 W/m 18,0 km/h (3 Bft)
12.11.2013 06:00 3,9 C 2,8 C 92 % 1025,1 hPa 0,0 l/m 0 min 0 min 0,0 UV-I 0 W/m 18,0 km/h (3 Bft)
12.11.2013 06:02 3,9 C 2,8 C 92 % 1025,1 hPa 0,0 l/m 0 min 0 min 0,0 UV-I 0 W/m 10,3 km/h (2 Bft)
12.11.2013 06:06 3,9 C 2,8 C 92 % 1025,1 hPa 0,0 l/m 0 min 0 min 0,0 UV-I 0 W/m 10,3 km/h (2 Bft)
12.11.2013 06:08 3,9 C 3,3 C 92 % 1025,1 hPa 0,0 l/m 0 min 0 min 0,0 UV-I 0 W/m 12,9 km/h (3 Bft)
12.11.2013 06:10 3,9 C 3,3 C 92 % 1025,1 hPa 0,0 l/m 0 min 0 min 0,0 UV-I 0 W/m 12,9 km/h (3 Bft)
12.11.2013 06:12 3,9 C 3,3 C 92 % 1025,1 hPa 0,0 l/m 0 min 0 min 0,0 UV-I 0 W/m 10,3 km/h (2 Bft)
12.11.2013 06:14 3,9 C 3,3 C 92 % 1025,0 hPa 0,0 l/m 0 min 0 min 0,0 UV-I 0 W/m 12,9 km/h (3 Bft)
12.11.2013 06:16 3,9 C 3,3 C 92 % 1025,0 hPa 0,0 l/m 0 min 0 min 0,0 UV-I 0 W/m 15,4 km/h (3 Bft)
12.11.2013 06:18 3,9 C 3,3 C 92 % 1025,0 hPa 0,0 l/m 0 min 0 min 0,0 UV-I 0 W/m 12,9 km/h (3 Bft)
12.11.2013 06:20 3,9 C 3,3 C 92 % 1025,0 hPa 0,0 l/m 0 min 0 min 0,0 UV-I 0 W/m 7,7 km/h (2 Bft)
12.11.2013 06:22 3,9 C 3,3 C 92 % 1025,0 hPa 0,0 l/m 0 min 0 min 0,0 UV-I 0 W/m 7,7 km/h (2 Bft)
12.11.2013 06:24 3,9 C 3,3 C 92 % 1025,0 hPa 0,0 l/m 0 min 0 min 0,0 UV-I 0 W/m 12,9 km/h (3 Bft)
12.11.2013 06:26 4,0 C 3,3 C 92 % 1025,0 hPa 0,0 l/m 0 min 0 min 0,0 UV-I 0 W/m 10,3 km/h (2 Bft)
12.11.2013 06:28 4,0 C 3,3 C 91 % 1025,0 hPa 0,0 l/m 0 min 0 min 0,0 UV-I 0 W/m 10,3 km/h (2 Bft)
12.11.2013 06:30 4,0 C 3,3 C 91 % 1025,0 hPa 0,0 l/m 0 min 0 min 0,0 UV-I 0 W/m 10,3 km/h (2 Bft)
12.11.2013 06:32 4,0 C 3,3 C 91 % 1025,0 hPa 0,0 l/m 0 min 0 min 0,0 UV-I 0 W/m 12,9 km/h (3 Bft)
12.11.2013 06:34 4,0 C 3,3 C 91 % 1025,0 hPa 0,0 l/m 0 min 0 min 0,0 UV-I 0 W/m 15,4 km/h (3 Bft)
12.11.2013 06:36 4,0 C 3,3 C 91 % 1025,0 hPa 0,0 l/m 0 min 0 min 0,0 UV-I 0 W/m 15,4 km/h (3 Bft)
12.11.2013 06:38 4,1 C 3,3 C 91 % 1025,0 hPa 0,0 l/m 0 min 0 min 0,0 UV-I 0 W/m 5,1 km/h (1 Bft)
12.11.2013 06:40 4,1 C 3,3 C 91 % 1025,0 hPa 0,0 l/m 0 min 0 min 0,0 UV-I 0 W/m 7,7 km/h (2 Bft)
12.11.2013 06:42 4,1 C 3,3 C 91 % 1025,0 hPa 0,0 l/m 0 min 0 min 0,0 UV-I 0 W/m 12,9 km/h (3 Bft)
12.11.2013 06:44 4,1 C 3,3 C 91 % 1025,1 hPa 0,0 l/m 0 min 0 min 0,0 UV-I 0 W/m 5,1 km/h (1 Bft)
12.11.2013 06:46 4,1 C 3,3 C 92 % 1025,1 hPa 0,0 l/m 0 min 0 min 0,0 UV-I 0 W/m 7,7 km/h (2 Bft)
12.11.2013 06:48 4,1 C 3,3 C 92 % 1025,1 hPa 0,0 l/m 0 min 0 min 0,0 UV-I 0 W/m 20,6 km/h (4 Bft)
12.11.2013 06:50 4,1 C 3,3 C 92 % 1025,1 hPa 0,0 l/m 0 min 0 min 0,0 UV-I 0 W/m 7,7 km/h (2 Bft)
12.11.2013 06:52 4,1 C 3,3 C 91 % 1025,1 hPa 0,0 l/m 0 min 0 min 0,0 UV-I 0 W/m 7,7 km/h (2 Bft)
12.11.2013 06:54 4,1 C 3,3 C 91 % 1025,1 hPa 0,0 l/m 0 min 0 min 0,0 UV-I 0 W/m 15,4 km/h (3 Bft)
12.11.2013 06:56 4,1 C 3,3 C 91 % 1025,1 hPa 0,0 l/m 0 min 0 min 0,0 UV-I 0 W/m 5,1 km/h (1 Bft)
12.11.2013 06:58 4,1 C 3,3 C 91 % 1025,0 hPa 0,0 l/m 0 min 0 min 0,0 UV-I 0 W/m 0,0 km/h (0 Bft)
12.11.2013 07:00 4,2 C 3,3 C 91 % 1025,0 hPa 0,0 l/m 0 min 0 min 0,0 UV-I 0 W/m 7,7 km/h (2 Bft)
12.11.2013 07:02 4,2 C 3,3 C 91 % 1025,1 hPa 0,0 l/m 0 min 0 min 0,0 UV-I 0 W/m 0,0 km/h (0 Bft)
12.11.2013 07:06 4,2 C 3,3 C 91 % 1025,1 hPa 0,0 l/m 0 min 0 min 0,0 UV-I 0 W/m 5,1 km/h (1 Bft)
12.11.2013 07:08 4,2 C 3,3 C 91 % 1025,1 hPa 0,0 l/m 0 min 0 min 0,0 UV-I 0 W/m 5,1 km/h (1 Bft)
12.11.2013 07:10 4,2 C 3,3 C 91 % 1025,1 hPa 0,0 l/m 0 min 0 min 0,0 UV-I 0 W/m 5,1 km/h (1 Bft)
12.11.2013 07:12 4,2 C 3,3 C 91 % 1025,1 hPa 0,0 l/m 0 min 0 min 0,0 UV-I 0 W/m 5,1 km/h (1 Bft)
12.11.2013 07:14 4,2 C 3,3 C 91 % 1025,1 hPa 0,0 l/m 0 min 0 min 0,0 UV-I 0 W/m 5,1 km/h (1 Bft)
12.11.2013 07:16 4,2 C 3,3 C 91 % 1025,1 hPa 0,0 l/m 0 min 0 min 0,0 UV-I 0 W/m 0,0 km/h (0 Bft)
12.11.2013 07:18 4,3 C 3,3 C 91 % 1025,1 hPa 0,0 l/m 0 min 0 min 0,0 UV-I 0 W/m 2,6 km/h (1 Bft)
12.11.2013 07:20 4,3 C 3,3 C 91 % 1025,1 hPa 0,0 l/m 0 min 0 min 0,0 UV-I 0 W/m 10,3 km/h (2 Bft)
12.11.2013 07:22 4,3 C 3,3 C 91 % 1025,1 hPa 0,0 l/m 0 min 0 min 0,0 UV-I 0 W/m 0,0 km/h (0 Bft)
12.11.2013 07:24 4,3 C 3,3 C 91 % 1025,1 hPa 0,0 l/m 0 min 0 min 0,0 UV-I 0 W/m 7,7 km/h (2 Bft)
12.11.2013 07:26 4,3 C 3,3 C 91 % 1025,1 hPa 0,0 l/m 0 min 0 min 0,0 UV-I 0 W/m 0,0 km/h (0 Bft)
12.11.2013 07:28 4,3 C 3,3 C 91 % 1025,1 hPa 0,0 l/m 0 min 0 min 0,0 UV-I 0 W/m 0,0 km/h (0 Bft)
12.11.2013 07:30 4,3 C 3,3 C 91 % 1025,0 hPa 0,0 l/m 0 min 0 min 0,0 UV-I 0 W/m 2,6 km/h (1 Bft)
12.11.2013 07:32 4,3 C 3,3 C 91 % 1025,1 hPa 0,0 l/m 0 min 0 min 0,0 UV-I 0 W/m 0,0 km/h (0 Bft)
12.11.2013 07:34 4,4 C 3,3 C 91 % 1025,1 hPa 0,0 l/m 0 min 0 min 0,0 UV-I 0 W/m 12,9 km/h (3 Bft)
12.11.2013 07:36 4,3 C 3,3 C 91 % 1025,1 hPa 0,0 l/m 0 min 0 min 0,0 UV-I 0 W/m 7,7 km/h (2 Bft)
12.11.2013 07:38 4,4 C 3,3 C 91 % 1025,1 hPa 0,0 l/m 0 min 0 min 0,0 UV-I 0 W/m 10,3 km/h (2 Bft)
12.11.2013 07:40 4,4 C 3,3 C 91 % 1025,0 hPa 0,0 l/m 0 min 0 min 0,0 UV-I 0 W/m 12,9 km/h (3 Bft)
12.11.2013 07:42 4,4 C 3,3 C 91 % 1025,0 hPa 0,0 l/m 0 min 0 min 0,0 UV-I 5 W/m 12,9 km/h (3 Bft)
12.11.2013 07:44 4,4 C 3,3 C 91 % 1024,9 hPa 0,0 l/m 0 min 0 min 0,0 UV-I 5 W/m 12,9 km/h (3 Bft)
12.11.2013 07:46 4,4 C 3,3 C 91 % 1025,1 hPa 0,0 l/m 0 min 0 min 0,0 UV-I 5 W/m 15,4 km/h (3 Bft)
12.11.2013 07:48 4,4 C 3,3 C 91 % 1025,0 hPa 0,0 l/m 0 min 0 min 0,0 UV-I 5 W/m 10,3 km/h (2 Bft)
12.11.2013 07:50 4,4 C 3,3 C 91 % 1025,0 hPa 0,0 l/m 0 min 0 min 0,0 UV-I 5 W/m 20,6 km/h (4 Bft)
12.11.2013 07:52 4,4 C 3,3 C 91 % 1025,0 hPa 0,0 l/m 0 min 0 min 0,0 UV-I 7 W/m 10,3 km/h (2 Bft)
12.11.2013 07:54 4,4 C 3,3 C 91 % 1025,1 hPa 0,0 l/m 0 min 0 min 0,0 UV-I 7 W/m 10,3 km/h (2 Bft)
12.11.2013 07:56 4,4 C 3,9 C 91 % 1025,1 hPa 0,0 l/m 0 min 0 min 0,0 UV-I 7 W/m 18,0 km/h (3 Bft)
12.11.2013 07:58 4,4 C 3,9 C 91 % 1025,0 hPa 0,0 l/m 0 min 0 min 0,0 UV-I 7 W/m 12,9 km/h (3 Bft)
12.11.2013 08:00 4,4 C 3,9 C 91 % 1025,0 hPa 0,0 l/m 0 min 0 min 0,0 UV-I 7 W/m 10,3 km/h (2 Bft)
12.11.2013 08:02 4,4 C 3,9 C 91 % 1024,9 hPa 0,0 l/m 0 min 0 min 0,0 UV-I 7 W/m 12,9 km/h (3 Bft)
12.11.2013 08:06 4,5 C 3,9 C 90 % 1025,0 hPa 0,0 l/m 0 min 0 min 0,0 UV-I 7 W/m 10,3 km/h (2 Bft)
12.11.2013 08:08 4,5 C 3,9 C 90 % 1025,0 hPa 0,0 l/m 0 min 0 min 0,0 UV-I 7 W/m 10,3 km/h (2 Bft)
12.11.2013 08:10 4,5 C 3,9 C 90 % 1025,0 hPa 0,0 l/m 0 min 0 min 0,0 UV-I 7 W/m 7,7 km/h (2 Bft)
12.11.2013 08:12 4,5 C 3,9 C 90 % 1025,0 hPa 0,0 l/m 0 min 0 min 0,0 UV-I 9 W/m 7,7 km/h (2 Bft)
12.11.2013 08:14 4,6 C 3,9 C 90 % 1025,1 hPa 0,0 l/m 0 min 0 min 0,0 UV-I 9 W/m 15,4 km/h (3 Bft)
12.11.2013 08:16 4,6 C 3,9 C 90 % 1025,0 hPa 0,0 l/m 0 min 0 min 0,0 UV-I 9 W/m 12,9 km/h (3 Bft)
12.11.2013 08:18 4,6 C 3,9 C 90 % 1025,1 hPa 0,0 l/m 0 min 0 min 0,0 UV-I 11 W/m 12,9 km/h (3 Bft)
12.11.2013 08:20 4,6 C 3,9 C 95 % 1025,1 hPa 0,0 l/m 0 min 0 min 0,0 UV-I 12 W/m 10,3 km/h (2 Bft)
12.11.2013 08:22 4,6 C 3,9 C 90 % 1025,1 hPa 0,0 l/m 0 min 0 min 0,0 UV-I 18 W/m 12,9 km/h (3 Bft)
12.11.2013 08:24 4,6 C 3,9 C 90 % 1025,1 hPa 0,0 l/m 0 min 0 min 0,0 UV-I 19 W/m 5,1 km/h (1 Bft)
12.11.2013 08:26 4,7 C 3,9 C 90 % 1025,2 hPa 0,0 l/m 0 min 0 min 0,0 UV-I 21 W/m 5,1 km/h (1 Bft)
12.11.2013 08:28 4,7 C 3,9 C 90 % 1025,2 hPa 0,0 l/m 0 min 0 min 0,0 UV-I 23 W/m 2,6 km/h (1 Bft)
12.11.2013 08:30 4,7 C 3,9 C 90 % 1025,2 hPa 0,0 l/m 0 min 0 min 0,0 UV-I 26 W/m 7,7 km/h (2 Bft)
12.11.2013 08:32 4,7 C 3,9 C 90 % 1025,2 hPa 0,0 l/m 0 min 0 min 0,0 UV-I 28 W/m 0,0 km/h (0 Bft)
12.11.2013 08:34 4,8 C 3,9 C 90 % 1025,1 hPa 0,0 l/m 0 min 0 min 0,0 UV-I 32 W/m 7,7 km/h (2 Bft)
12.11.2013 08:36 4,8 C 4,4 C 90 % 1025,1 hPa 0,0 l/m 0 min 0 min 0,0 UV-I 32 W/m 7,7 km/h (2 Bft)
12.11.2013 08:38 4,9 C 4,4 C 90 % 1025,1 hPa 0,0 l/m 0 min 0 min 0,0 UV-I 32 W/m 12,9 km/h (3 Bft)
12.11.2013 08:40 4,9 C 4,4 C 90 % 1025,1 hPa 0,0 l/m 0 min 0 min 0,0 UV-I 32 W/m 12,9 km/h (3 Bft)
12.11.2013 08:42 4,9 C 4,4 C 90 % 1025,1 hPa 0,0 l/m 0 min 0 min 0,0 UV-I 30 W/m 10,3 km/h (2 Bft)
12.11.2013 08:44 4,9 C 4,4 C 90 % 1025,1 hPa 0,0 l/m 0 min 0 min 0,0 UV-I 30 W/m 12,9 km/h (3 Bft)
12.11.2013 08:46 4,9 C 4,4 C 90 % 1025,0 hPa 0,0 l/m 0 min 0 min 0,0 UV-I 32 W/m 12,9 km/h (3 Bft)
12.11.2013 08:48 5,0 C 4,4 C 90 % 1025,0 hPa 0,0 l/m 0 min 0 min 0,0 UV-I 33 W/m 12,9 km/h (3 Bft)
12.11.2013 08:50 5,0 C 4,4 C 90 % 1025,0 hPa 0,0 l/m 0 min 0 min 0,0 UV-I 33 W/m 5,1 km/h (1 Bft)
12.11.2013 08:52 5,1 C 4,4 C 90 % 1025,0 hPa 0,0 l/m 0 min 0 min 0,0 UV-I 35 W/m 7,7 km/h (2 Bft)
12.11.2013 08:54 5,1 C 4,4 C 90 % 1024,9 hPa 0,0 l/m 0 min 0 min 0,0 UV-I 33 W/m 7,7 km/h (2 Bft)
12.11.2013 08:56 5,1 C 4,4 C 90 % 1025,0 hPa 0,0 l/m 0 min 0 min 0,0 UV-I 32 W/m 7,7 km/h (2 Bft)
12.11.2013 08:58 5,1 C 4,4 C 90 % 1025,0 hPa 0,0 l/m 0 min 0 min 0,0 UV-I 32 W/m 7,7 km/h (2 Bft)
12.11.2013 09:00 5,2 C 4,4 C 89 % 1025,0 hPa 0,0 l/m 0 min 0 min 0,0 UV-I 33 W/m 10,3 km/h (2 Bft)
12.11.2013 09:02 5,2 C 4,4 C 89 % 1025,1 hPa 0,0 l/m 0 min 0 min 0,0 UV-I 35 W/m 7,7 km/h (2 Bft)
12.11.2013 09:06 5,2 C 4,4 C 89 % 1025,0 hPa 0,0 l/m 0 min 0 min 0,0 UV-I 39 W/m 15,4 km/h (3 Bft)
12.11.2013 09:08 5,2 C 4,4 C 89 % 1025,0 hPa 0,0 l/m 0 min 0 min 0,0 UV-I 47 W/m 15,4 km/h (3 Bft)
12.11.2013 09:10 5,2 C 4,4 C 89 % 1024,9 hPa 0,0 l/m 0 min 0 min 0,0 UV-I 56 W/m 10,3 km/h (2 Bft)
12.11.2013 09:12 5,3 C 4,4 C 89 % 1024,9 hPa 0,0 l/m 0 min 0 min 0,0 UV-I 65 W/m 7,7 km/h (2 Bft)
12.11.2013 09:14 5,3 C 5,0 C 89 % 1024,9 hPa 0,0 l/m 0 min 0 min 0,0 UV-I 76 W/m 12,9 km/h (3 Bft)
12.11.2013 09:16 5,4 C 5,0 C 89 % 1025,0 hPa 0,0 l/m 0 min 0 min 0,0 UV-I 81 W/m 12,9 km/h (3 Bft)
12.11.2013 09:18 5,4 C 5,0 C 89 % 1024,9 hPa 0,0 l/m 0 min 0 min 0,0 UV-I 86 W/m 12,9 km/h (3 Bft)
12.11.2013 09:20 5,5 C 5,0 C 89 % 1024,9 hPa 0,0 l/m 0 min 0 min 0,0 UV-I 93 W/m 15,4 km/h (3 Bft)
12.11.2013 09:22 5,6 C 5,0 C 89 % 1024,9 hPa 0,0 l/m 0 min 0 min 0,0 UV-I 93 W/m 12,9 km/h (3 Bft)
12.11.2013 09:24 5,6 C 5,0 C 89 % 1024,9 hPa 0,0 l/m 0 min 0 min 0,0 UV-I 90 W/m 15,4 km/h (3 Bft)
12.11.2013 09:26 5,6 C 5,0 C 88 % 1024,9 hPa 0,0 l/m 0 min 0 min 0,0 UV-I 88 W/m 18,0 km/h (3 Bft)
12.11.2013 09:28 5,7 C 5,0 C 89 % 1025,0 hPa 0,0 l/m 0 min 0 min 0,0 UV-I 90 W/m 20,6 km/h (4 Bft)
12.11.2013 09:30 5,7 C 5,0 C 88 % 1025,0 hPa 0,0 l/m 0 min 0 min 0,0 UV-I 90 W/m 18,0 km/h (3 Bft)
12.11.2013 09:32 5,7 C 5,0 C 88 % 1024,9 hPa 0,0 l/m 0 min 0 min 0,0 UV-I 91 W/m 12,9 km/h (3 Bft)
12.11.2013 09:34 5,8 C 5,6 C 88 % 1025,0 hPa 0,0 l/m 0 min 0 min 0,0 UV-I 93 W/m 23,2 km/h (4 Bft)
12.11.2013 09:36 5,8 C 5,6 C 88 % 1025,0 hPa 0,0 l/m 0 min 0 min 0,0 UV-I 98 W/m 12,9 km/h (3 Bft)
12.11.2013 09:38 5,8 C 5,6 C 88 % 1025,0 hPa 0,0 l/m 0 min 0 min 0,0 UV-I 105 W/m 15,4 km/h (3 Bft)
12.11.2013 09:40 5,9 C 5,6 C 88 % 1025,0 hPa 0,0 l/m 0 min 0 min 0,0 UV-I 111 W/m 18,0 km/h (3 Bft)
12.11.2013 09:42 5,9 C 5,6 C 87 % 1024,9 hPa 0,0 l/m 0 min 0 min 0,0 UV-I 114 W/m 20,6 km/h (4 Bft)
12.11.2013 09:44 5,9 C 5,6 C 87 % 1024,9 hPa 0,0 l/m 0 min 0 min 0,0 UV-I 120 W/m 12,9 km/h (3 Bft)
12.11.2013 09:46 6,1 C 5,6 C 87 % 1024,9 hPa 0,0 l/m 0 min 0 min 0,0 UV-I 120 W/m 18,0 km/h (3 Bft)
12.11.2013 09:48 6,1 C 5,6 C 87 % 1024,9 hPa 0,0 l/m 0 min 0 min 0,0 UV-I 118 W/m 15,4 km/h (3 Bft)
12.11.2013 09:50 6,2 C 6,1 C 87 % 1024,9 hPa 0,0 l/m 0 min 0 min 0,0 UV-I 113 W/m 15,4 km/h (3 Bft)
12.11.2013 09:52 6,2 C 6,1 C 87 % 1024,9 hPa 0,0 l/m 0 min 0 min 0,0 UV-I 107 W/m 15,4 km/h (3 Bft)
12.11.2013 09:54 6,3 C 6,1 C 87 % 1025,0 hPa 0,0 l/m 0 min 0 min 0,0 UV-I 104 W/m 10,3 km/h (2 Bft)
12.11.2013 09:56 6,3 C 6,1 C 86 % 1025,0 hPa 0,0 l/m 0 min 0 min 0,0 UV-I 102 W/m 15,4 km/h (3 Bft)
12.11.2013 09:58 6,3 C 6,1 C 86 % 1024,9 hPa 0,0 l/m 0 min 0 min 0,0 UV-I 104 W/m 10,3 km/h (2 Bft)
12.11.2013 10:00 6,4 C 6,1 C 86 % 1025,1 hPa 0,0 l/m 0 min 0 min 0,0 UV-I 109 W/m 7,7 km/h (2 Bft)
12.11.2013 10:02 6,4 C 6,1 C 86 % 1025,1 hPa 0,0 l/m 0 min 0 min 0,0 UV-I 118 W/m 10,3 km/h (2 Bft)
12.11.2013 10:06 6,5 C 6,1 C 86 % 1025,2 hPa 0,0 l/m 0 min 0 min 0,0 UV-I 127 W/m 7,7 km/h (2 Bft)
12.11.2013 10:08 6,6 C 6,1 C 86 % 1025,0 hPa 0,0 l/m 0 min 0 min 0,0 UV-I 128 W/m 10,3 km/h (2 Bft)
12.11.2013 10:10 6,6 C 6,7 C 86 % 1025,0 hPa 0,0 l/m 0 min 0 min 0,0 UV-I 128 W/m 15,4 km/h (3 Bft)
12.11.2013 10:12 6,6 C 6,7 C 86 % 1025,0 hPa 0,0 l/m 0 min 0 min 0,0 UV-I 127 W/m 12,9 km/h (3 Bft)
12.11.2013 10:14 6,7 C 6,7 C 86 % 1025,0 hPa 0,0 l/m 0 min 0 min 0,0 UV-I 134 W/m 15,4 km/h (3 Bft)
12.11.2013 10:16 6,7 C 6,7 C 85 % 1024,9 hPa 0,0 l/m 0 min 0 min 0,0 UV-I 144 W/m 10,3 km/h (2 Bft)
12.11.2013 10:18 6,7 C 6,7 C 85 % 1024,9 hPa 0,0 l/m 0 min 0 min 0,0 UV-I 149 W/m 12,9 km/h (3 Bft)
12.11.2013 10:20 6,8 C 6,7 C 85 % 1024,9 hPa 0,0 l/m 0 min 0 min 0,0 UV-I 144 W/m 0,0 km/h (0 Bft)
12.11.2013 10:22 6,9 C 6,7 C 85 % 1024,9 hPa 0,0 l/m 0 min 0 min 0,0 UV-I 137 W/m 5,1 km/h (1 Bft)
12.11.2013 10:24 7,1 C 6,7 C 85 % 1024,9 hPa 0,0 l/m 0 min 0 min 0,0 UV-I 127 W/m 10,3 km/h (2 Bft)
12.11.2013 10:26 7,1 C 6,7 C 85 % 1024,9 hPa 0,0 l/m 0 min 0 min 0,0 UV-I 120 W/m 12,9 km/h (3 Bft)
12.11.2013 10:28 7,2 C 6,7 C 84 % 1024,9 hPa 0,0 l/m 0 min 0 min 0,0 UV-I 113 W/m 12,9 km/h (3 Bft)
12.11.2013 10:30 7,2 C 6,7 C 83 % 1024,9 hPa 0,0 l/m 0 min 0 min 0,0 UV-I 107 W/m 10,3 km/h (2 Bft)
12.11.2013 10:32 7,3 C 6,7 C 83 % 1024,9 hPa 0,0 l/m 0 min 0 min 0,0 UV-I 107 W/m 15,4 km/h (3 Bft)
12.11.2013 10:34 7,3 C 6,7 C 82 % 1024,9 hPa 0,0 l/m 0 min 0 min 0,0 UV-I 109 W/m 7,7 km/h (2 Bft)
12.11.2013 10:36 7,3 C 6,7 C 82 % 1024,9 hPa 0,0 l/m 0 min 0 min 0,0 UV-I 116 W/m 10,3 km/h (2 Bft)
12.11.2013 10:38 7,4 C 7,2 C 82 % 1024,9 hPa 0,0 l/m 0 min 0 min 0,0 UV-I 120 W/m 7,7 km/h (2 Bft)
12.11.2013 10:40 7,5 C 7,2 C 82 % 1024,9 hPa 0,0 l/m 0 min 0 min 0,0 UV-I 121 W/m 10,3 km/h (2 Bft)
12.11.2013 10:42 7,6 C 7,2 C 82 % 1025,0 hPa 0,0 l/m 0 min 0 min 0,0 UV-I 123 W/m 0,0 km/h (0 Bft)
12.11.2013 10:44 7,7 C 7,2 C 82 % 1024,9 hPa 0,0 l/m 0 min 0 min 0,0 UV-I 128 W/m 0,0 km/h (0 Bft)
12.11.2013 10:46 7,7 C 7,2 C 82 % 1024,9 hPa 0,0 l/m 0 min 0 min 0,0 UV-I 132 W/m 2,6 km/h (1 Bft)
12.11.2013 10:48 7,8 C 7,2 C 81 % 1025,0 hPa 0,0 l/m 0 min 0 min 0,0 UV-I 137 W/m 7,7 km/h (2 Bft)
12.11.2013 10:50 7,9 C 7,8 C 81 % 1025,0 hPa 0,0 l/m 0 min 0 min 0,0 UV-I 135 W/m 10,3 km/h (2 Bft)
12.11.2013 10:52 7,9 C 7,8 C 79 % 1024,9 hPa 0,0 l/m 0 min 0 min 0,0 UV-I 142 W/m 10,3 km/h (2 Bft)
12.11.2013 10:54 7,9 C 7,8 C 78 % 1024,9 hPa 0,0 l/m 0 min 0 min 0,0 UV-I 151 W/m 12,9 km/h (3 Bft)
12.11.2013 10:56 8,1 C 7,8 C 77 % 1024,9 hPa 0,0 l/m 0 min 0 min 0,0 UV-I 151 W/m 5,1 km/h (1 Bft)
12.11.2013 10:58 8,1 C 7,8 C 78 % 1024,9 hPa 0,0 l/m 0 min 0 min 0,0 UV-I 151 W/m 12,9 km/h (3 Bft)
12.11.2013 11:00 8,2 C 7,8 C 78 % 1024,8 hPa 0,0 l/m 0 min 0 min 0,0 UV-I 155 W/m 15,4 km/h (3 Bft)
12.11.2013 11:02 8,3 C 7,8 C 77 % 1024,8 hPa 0,0 l/m 0 min 0 min 0,0 UV-I 163 W/m 7,7 km/h (2 Bft)
12.11.2013 11:06 8,3 C 7,8 C 77 % 1024,7 hPa 0,0 l/m 0 min 0 min 0,0 UV-I 176 W/m 5,1 km/h (1 Bft)
12.11.2013 11:08 8,4 C 8,3 C 77 % 1024,7 hPa 0,0 l/m 2 min 0 min 0,0 UV-I 192 W/m 0,0 km/h (0 Bft)
12.11.2013 11:10 8,5 C 8,3 C 77 % 1024,7 hPa 0,0 l/m 2 min 0 min 0,0 UV-I 190 W/m 0,0 km/h (0 Bft)
12.11.2013 11:12 8,6 C 8,3 C 77 % 1024,6 hPa 0,0 l/m 0 min 0 min 0,0 UV-I 181 W/m 10,3 km/h (2 Bft)
12.11.2013 11:14 8,6 C 8,3 C 76 % 1024,7 hPa 0,0 l/m 0 min 0 min 0,0 UV-I 171 W/m 7,7 km/h (2 Bft)
12.11.2013 11:16 8,6 C 8,3 C 76 % 1024,6 hPa 0,0 l/m 0 min 0 min 0,0 UV-I 156 W/m 7,7 km/h (2 Bft)
12.11.2013 11:18 8,6 C 8,3 C 76 % 1024,6 hPa 0,0 l/m 0 min 0 min 0,0 UV-I 141 W/m 10,3 km/h (2 Bft)
12.11.2013 11:20 8,6 C 8,3 C 76 % 1024,5 hPa 0,0 l/m 0 min 0 min 0,0 UV-I 135 W/m 10,3 km/h (2 Bft)
12.11.2013 11:22 8,6 C 8,3 C 76 % 1024,6 hPa 0,0 l/m 0 min 0 min 0,0 UV-I 132 W/m 10,3 km/h (2 Bft)
12.11.2013 11:24 8,6 C 8,3 C 76 % 1024,6 hPa 0,0 l/m 0 min 0 min 0,0 UV-I 128 W/m 10,3 km/h (2 Bft)
12.11.2013 11:26 8,7 C 8,3 C 76 % 1024,5 hPa 0,0 l/m 0 min 0 min 0,0 UV-I 134 W/m 7,7 km/h (2 Bft)
12.11.2013 11:28 8,6 C 8,3 C 76 % 1024,5 hPa 0,0 l/m 0 min 0 min 0,0 UV-I 137 W/m 7,7 km/h (2 Bft)
12.11.2013 11:30 8,6 C 8,3 C 76 % 1024,5 hPa 0,0 l/m 0 min 0 min 0,0 UV-I 139 W/m 20,6 km/h (4 Bft)
12.11.2013 11:32 8,6 C 7,8 C 75 % 1024,4 hPa 0,0 l/m 0 min 0 min 0,0 UV-I 151 W/m 12,9 km/h (3 Bft)
12.11.2013 11:34 8,6 C 8,3 C 76 % 1024,4 hPa 0,0 l/m 0 min 0 min 0,0 UV-I 165 W/m 0,0 km/h (0 Bft)
12.11.2013 11:36 8,7 C 8,3 C 76 % 1024,4 hPa 0,0 l/m 0 min 0 min 0,0 UV-I 172 W/m 12,9 km/h (3 Bft)
12.11.2013 11:38 8,7 C 8,3 C 76 % 1024,4 hPa 0,0 l/m 0 min 0 min 0,0 UV-I 174 W/m 7,7 km/h (2 Bft)
12.11.2013 11:40 8,8 C 8,3 C 77 % 1024,4 hPa 0,0 l/m 0 min 0 min 0,0 UV-I 155 W/m 0,0 km/h (0 Bft)
12.11.2013 11:42 8,8 C 8,3 C 77 % 1024,4 hPa 0,0 l/m 0 min 0 min 0,0 UV-I 135 W/m 0,0 km/h (0 Bft)
12.11.2013 11:44 8,9 C 8,3 C 76 % 1024,4 hPa 0,0 l/m 0 min 0 min 0,0 UV-I 120 W/m 10,3 km/h (2 Bft)
12.11.2013 11:46 8,8 C 8,3 C 76 % 1024,3 hPa 0,0 l/m 0 min 0 min 0,0 UV-I 107 W/m 15,4 km/h (3 Bft)
12.11.2013 11:48 8,7 C 7,8 C 76 % 1024,3 hPa 0,0 l/m 0 min 0 min 0,0 UV-I 109 W/m 18,0 km/h (3 Bft)
12.11.2013 11:50 8,7 C 7,8 C 77 % 1024,3 hPa 0,0 l/m 0 min 0 min 0,0 UV-I 105 W/m 10,3 km/h (2 Bft)
12.11.2013 11:52 8,7 C 7,8 C 77 % 1024,2 hPa 0,0 l/m 0 min 0 min 0,0 UV-I 88 W/m 18,0 km/h (3 Bft)
12.11.2013 11:54 8,7 C 7,8 C 78 % 1024,3 hPa 0,0 l/m 0 min 0 min 0,0 UV-I 95 W/m 25,7 km/h (4 Bft)
12.11.2013 11:56 8,7 C 7,8 C 78 % 1024,2 hPa 0,0 l/m 0 min 0 min 0,0 UV-I 100 W/m 18,0 km/h (3 Bft)
12.11.2013 11:58 8,7 C 7,8 C 78 % 1024,2 hPa 0,0 l/m 0 min 0 min 0,0 UV-I 97 W/m 7,7 km/h (2 Bft)
12.11.2013 12:00 8,7 C 7,8 C 78 % 1024,1 hPa 0,0 l/m 0 min 0 min 0,0 UV-I 86 W/m 10,3 km/h (2 Bft)
12.11.2013 12:02 8,7 C 7,8 C 78 % 1024,1 hPa 0,0 l/m 0 min 0 min 0,0 UV-I 77 W/m 10,3 km/h (2 Bft)
12.11.2013 12:06 8,7 C 7,8 C 78 % 1024,1 hPa 0,0 l/m 0 min 0 min 0,0 UV-I 102 W/m 7,7 km/h (2 Bft)
12.11.2013 12:08 8,7 C 7,8 C 78 % 1024,0 hPa 0,0 l/m 0 min 0 min 0,0 UV-I 105 W/m 10,3 km/h (2 Bft)
12.11.2013 12:10 8,7 C 7,8 C 79 % 1024,0 hPa 0,0 l/m 0 min 0 min 0,0 UV-I 95 W/m 18,0 km/h (3 Bft)
12.11.2013 12:12 8,7 C 7,8 C 78 % 1024,0 hPa 0,0 l/m 0 min 0 min 0,0 UV-I 102 W/m 18,0 km/h (3 Bft)
12.11.2013 12:14 8,7 C 7,8 C 78 % 1024,1 hPa 0,0 l/m 0 min 0 min 0,0 UV-I 109 W/m 18,0 km/h (3 Bft)
12.11.2013 12:16 8,7 C 7,8 C 79 % 1024,0 hPa 0,0 l/m 0 min 0 min 0,0 UV-I 111 W/m 20,6 km/h (4 Bft)
12.11.2013 12:18 8,7 C 7,8 C 79 % 1024,0 hPa 0,0 l/m 0 min 0 min 0,0 UV-I 109 W/m 15,4 km/h (3 Bft)
12.11.2013 12:20 8,7 C 7,8 C 80 % 1023,9 hPa 0,0 l/m 0 min 0 min 0,0 UV-I 111 W/m 18,0 km/h (3 Bft)
12.11.2013 12:22 8,6 C 7,8 C 80 % 1023,9 hPa 0,0 l/m 0 min 0 min 0,0 UV-I 116 W/m 18,0 km/h (3 Bft)
12.11.2013 12:24 8,6 C 7,8 C 80 % 1023,9 hPa 0,0 l/m 0 min 0 min 0,0 UV-I 113 W/m 18,0 km/h (3 Bft)
12.11.2013 12:26 8,6 C 7,8 C 80 % 1023,8 hPa 0,0 l/m 0 min 0 min 0,0 UV-I 107 W/m 18,0 km/h (3 Bft)
12.11.2013 12:28 8,6 C 7,8 C 80 % 1023,9 hPa 0,0 l/m 0 min 0 min 0,0 UV-I 105 W/m 18,0 km/h (3 Bft)
12.11.2013 12:30 8,6 C 7,8 C 80 % 1023,8 hPa 0,0 l/m 0 min 0 min 0,0 UV-I 109 W/m 25,7 km/h (4 Bft)
12.11.2013 12:32 8,6 C 7,8 C 80 % 1023,8 hPa 0,0 l/m 0 min 0 min 0,0 UV-I 104 W/m 18,0 km/h (3 Bft)
12.11.2013 12:34 8,6 C 7,8 C 80 % 1023,6 hPa 0,0 l/m 0 min 0 min 0,0 UV-I 93 W/m 20,6 km/h (4 Bft)
12.11.2013 12:36 8,6 C 7,8 C 80 % 1023,8 hPa 0,0 l/m 0 min 0 min 0,0 UV-I 79 W/m 25,7 km/h (4 Bft)
12.11.2013 12:38 8,6 C 7,8 C 80 % 1023,7 hPa 0,0 l/m 0 min 0 min 0,0 UV-I 69 W/m 15,4 km/h (3 Bft)
12.11.2013 12:40 8,6 C 7,8 C 80 % 1023,8 hPa 0,0 l/m 0 min 0 min 0,0 UV-I 62 W/m 18,0 km/h (3 Bft)
12.11.2013 12:42 8,6 C 7,8 C 80 % 1023,7 hPa 0,0 l/m 0 min 0 min 0,0 UV-I 58 W/m 0,0 km/h (0 Bft)
12.11.2013 12:44 8,6 C 7,8 C 80 % 1023,8 hPa 0,0 l/m 0 min 0 min 0,0 UV-I 58 W/m 5,1 km/h (1 Bft)
12.11.2013 12:46 8,6 C 7,8 C 81 % 1023,7 hPa 0,0 l/m 0 min 0 min 0,0 UV-I 56 W/m 0,0 km/h (0 Bft)
12.11.2013 12:48 8,6 C 7,8 C 81 % 1023,7 hPa 0,0 l/m 0 min 0 min 0,0 UV-I 53 W/m 2,6 km/h (1 Bft)
12.11.2013 12:50 8,6 C 7,8 C 80 % 1023,7 hPa 0,0 l/m 0 min 0 min 0,0 UV-I 51 W/m 7,7 km/h (2 Bft)
12.11.2013 12:52 8,6 C 7,8 C 81 % 1023,7 hPa 0,0 l/m 0 min 0 min 0,0 UV-I 49 W/m 2,6 km/h (1 Bft)
12.11.2013 12:54 8,6 C 7,8 C 81 % 1023,7 hPa 0,0 l/m 0 min 0 min 0,0 UV-I 54 W/m 0,0 km/h (0 Bft)
12.11.2013 12:56 8,6 C 7,8 C 81 % 1023,7 hPa 0,0 l/m 0 min 0 min 0,0 UV-I 56 W/m 7,7 km/h (2 Bft)
12.11.2013 12:58 8,6 C 7,8 C 81 % 1023,7 hPa 0,0 l/m 0 min 0 min 0,0 UV-I 54 W/m 0,0 km/h (0 Bft)
12.11.2013 13:00 8,6 C 7,8 C 82 % 1023,6 hPa 0,0 l/m 0 min 0 min 0,0 UV-I 53 W/m 5,1 km/h (1 Bft)
12.11.2013 13:02 8,6 C 7,8 C 82 % 1023,6 hPa 0,0 l/m 0 min 0 min 0,0 UV-I 60 W/m 7,7 km/h (2 Bft)
12.11.2013 13:06 8,6 C 7,8 C 81 % 1023,5 hPa 0,0 l/m 0 min 0 min 0,0 UV-I 63 W/m 10,3 km/h (2 Bft)
12.11.2013 13:08 8,7 C 7,8 C 81 % 1023,6 hPa 0,0 l/m 0 min 0 min 0,0 UV-I 60 W/m 10,3 km/h (2 Bft)
12.11.2013 13:10 8,7 C 7,8 C 82 % 1023,5 hPa 0,0 l/m 0 min 0 min 0,0 UV-I 56 W/m 12,9 km/h (3 Bft)
12.11.2013 13:12 8,7 C 7,8 C 81 % 1023,4 hPa 0,0 l/m 0 min 0 min 0,0 UV-I 56 W/m 10,3 km/h (2 Bft)
12.11.2013 13:14 8,7 C 7,2 C 81 % 1023,4 hPa 0,0 l/m 0 min 0 min 0,0 UV-I 54 W/m 7,7 km/h (2 Bft)
12.11.2013 13:16 8,7 C 7,2 C 82 % 1023,5 hPa 0,0 l/m 0 min 0 min 0,0 UV-I 54 W/m 10,3 km/h (2 Bft)
12.11.2013 13:18 8,7 C 7,2 C 82 % 1023,5 hPa 0,0 l/m 0 min 0 min 0,0 UV-I 56 W/m 23,2 km/h (4 Bft)
12.11.2013 13:20 8,7 C 7,2 C 82 % 1023,4 hPa 0,0 l/m 0 min 0 min 0,0 UV-I 54 W/m 12,9 km/h (3 Bft)
12.11.2013 13:22 8,6 C 7,2 C 83 % 1023,4 hPa 0,0 l/m 0 min 0 min 0,0 UV-I 54 W/m 15,4 km/h (3 Bft)
12.11.2013 13:24 8,6 C 7,2 C 83 % 1023,5 hPa 0,0 l/m 0 min 0 min 0,0 UV-I 56 W/m 18,0 km/h (3 Bft)
12.11.2013 13:26 8,5 C 7,2 C 83 % 1023,4 hPa 0,0 l/m 0 min 0 min 0,0 UV-I 54 W/m 7,7 km/h (2 Bft)
12.11.2013 13:28 8,5 C 7,2 C 84 % 1023,4 hPa 0,0 l/m 0 min 0 min 0,0 UV-I 49 W/m 5,1 km/h (1 Bft)
12.11.2013 13:30 8,4 C 7,2 C 84 % 1023,4 hPa 0,0 l/m 0 min 0 min 0,0 UV-I 47 W/m 0,0 km/h (0 Bft)
12.11.2013 13:32 8,4 C 7,2 C 85 % 1023,4 hPa 0,0 l/m 0 min 0 min 0,0 UV-I 44 W/m 7,7 km/h (2 Bft)
12.11.2013 13:34 8,4 C 7,2 C 85 % 1023,5 hPa 0,0 l/m 0 min 0 min 0,0 UV-I 42 W/m 15,4 km/h (3 Bft)
12.11.2013 13:36 8,4 C 7,2 C 85 % 1023,4 hPa 0,0 l/m 0 min 0 min 0,0 UV-I 44 W/m 12,9 km/h (3 Bft)
12.11.2013 13:38 8,3 C 7,2 C 85 % 1023,4 hPa 0,0 l/m 0 min 2 min 0,0 UV-I 39 W/m 12,9 km/h (3 Bft)
12.11.2013 13:40 8,3 C 6,7 C 85 % 1023,4 hPa 0,0 l/m 0 min 2 min 0,0 UV-I 37 W/m 12,9 km/h (3 Bft)
12.11.2013 13:42 8,3 C 6,7 C 85 % 1023,5 hPa 0,0 l/m 0 min 2 min 0,0 UV-I 37 W/m 12,9 km/h (3 Bft)
12.11.2013 13:44 8,2 C 6,7 C 86 % 1023,6 hPa 0,0 l/m 0 min 2 min 0,0 UV-I 33 W/m 18,0 km/h (3 Bft)
12.11.2013 13:46 8,2 C 6,7 C 86 % 1023,6 hPa 0,0 l/m 0 min 0 min 0,0 UV-I 35 W/m 7,7 km/h (2 Bft)
12.11.2013 13:48 8,2 C 6,7 C 86 % 1023,6 hPa 0,0 l/m 0 min 0 min 0,0 UV-I 40 W/m 10,3 km/h (2 Bft)
12.11.2013 13:50 8,1 C 6,7 C 86 % 1023,5 hPa 0,0 l/m 0 min 0 min 0,0 UV-I 40 W/m 2,6 km/h (1 Bft)
12.11.2013 13:52 8,1 C 6,7 C 87 % 1023,5 hPa 0,0 l/m 0 min 0 min 0,0 UV-I 39 W/m 7,7 km/h (2 Bft)
12.11.2013 13:54 8,1 C 6,7 C 87 % 1023,5 hPa 0,0 l/m 0 min 0 min 0,0 UV-I 37 W/m 5,1 km/h (1 Bft)
12.11.2013 13:56 8,1 C 6,7 C 87 % 1023,6 hPa 0,0 l/m 0 min 0 min 0,0 UV-I 35 W/m 2,6 km/h (1 Bft)
12.11.2013 13:58 8,1 C 6,7 C 87 % 1023,6 hPa 0,0 l/m 0 min 0 min 0,0 UV-I 37 W/m 12,9 km/h (3 Bft)
12.11.2013 14:00 8,1 C 6,7 C 87 % 1023,6 hPa 0,0 l/m 0 min 0 min 0,0 UV-I 42 W/m 10,3 km/h (2 Bft)
12.11.2013 14:02 8,1 C 6,7 C 87 % 1023,5 hPa 0,0 l/m 0 min 0 min 0,0 UV-I 42 W/m 18,0 km/h (3 Bft)
12.11.2013 14:06 8,2 C 6,7 C 90 % 1023,6 hPa 0,0 l/m 0 min 0 min 0,0 UV-I 42 W/m 7,7 km/h (2 Bft)
12.11.2013 14:08 8,2 C 6,7 C 86 % 1023,5 hPa 0,0 l/m 0 min 0 min 0,0 UV-I 42 W/m 2,6 km/h (1 Bft)
12.11.2013 14:10 8,2 C 7,2 C 85 % 1023,4 hPa 0,0 l/m 0 min 0 min 0,0 UV-I 44 W/m 0,0 km/h (0 Bft)
12.11.2013 14:12 8,3 C 7,2 C 85 % 1023,4 hPa 0,0 l/m 0 min 0 min 0,0 UV-I 47 W/m 0,0 km/h (0 Bft)
12.11.2013 14:14 8,3 C 7,2 C 85 % 1023,4 hPa 0,0 l/m 0 min 0 min 0,0 UV-I 54 W/m 12,9 km/h (3 Bft)
12.11.2013 14:16 8,3 C 7,2 C 84 % 1023,4 hPa 0,0 l/m 0 min 0 min 0,0 UV-I 58 W/m 7,7 km/h (2 Bft)
12.11.2013 14:20 8,4 C 7,2 C 85 % 1023,4 hPa 0,0 l/m 0 min 0 min 0,0 UV-I 58 W/m 7,7 km/h (2 Bft)
12.11.2013 14:28 8,4 C 7,2 C 84 % 1023,5 hPa 0,0 l/m 0 min 0 min 0,0 UV-I 53 W/m 10,3 km/h (2 Bft)
12.11.2013 14:30 8,5 C 7,2 C 84 % 1023,5 hPa 0,0 l/m 0 min 0 min 0,0 UV-I 44 W/m 10,3 km/h (2 Bft)
12.11.2013 14:32 8,5 C 7,2 C 84 % 1023,4 hPa 0,0 l/m 0 min 0 min 0,0 UV-I 39 W/m 2,6 km/h (1 Bft)
12.11.2013 14:34 8,5 C 7,2 C 84 % 1023,5 hPa 0,0 l/m 0 min 0 min 0,0 UV-I 32 W/m 2,6 km/h (1 Bft)
12.11.2013 14:36 8,5 C 7,2 C 84 % 1023,6 hPa 0,0 l/m 0 min 0 min 0,0 UV-I 30 W/m 7,7 km/h (2 Bft)
12.11.2013 14:38 8,4 C 7,2 C 84 % 1023,5 hPa 0,0 l/m 0 min 0 min 0,0 UV-I 30 W/m 15,4 km/h (3 Bft)
12.11.2013 14:40 8,4 C 7,2 C 84 % 1023,6 hPa 0,0 l/m 0 min 0 min 0,0 UV-I 32 W/m 12,9 km/h (3 Bft)
12.11.2013 14:42 8,4 C 7,2 C 84 % 1023,7 hPa 0,0 l/m 0 min 0 min 0,0 UV-I 30 W/m 0,0 km/h (0 Bft)
12.11.2013 14:44 8,4 C 7,2 C 84 % 1023,7 hPa 0,0 l/m 0 min 0 min 0,0 UV-I 30 W/m 5,1 km/h (1 Bft)
12.11.2013 14:46 8,4 C 7,2 C 85 % 1023,7 hPa 0,0 l/m 0 min 0 min 0,0 UV-I 32 W/m 5,1 km/h (1 Bft)
12.11.2013 14:48 8,4 C 7,2 C 85 % 1023,7 hPa 0,0 l/m 0 min 0 min 0,0 UV-I 39 W/m 0,0 km/h (0 Bft)
12.11.2013 14:50 8,3 C 7,2 C 85 % 1023,7 hPa 0,0 l/m 0 min 0 min 0,0 UV-I 42 W/m 5,1 km/h (1 Bft)
12.11.2013 14:52 8,3 C 7,2 C 85 % 1023,7 hPa 0,0 l/m 0 min 0 min 0,0 UV-I 46 W/m 0,0 km/h (0 Bft)
12.11.2013 14:54 8,3 C 7,2 C 86 % 1023,8 hPa 0,0 l/m 0 min 0 min 0,0 UV-I 53 W/m 7,7 km/h (2 Bft)
12.11.2013 14:56 8,3 C 7,2 C 86 % 1023,7 hPa 0,0 l/m 0 min 0 min 0,0 UV-I 60 W/m 5,1 km/h (1 Bft)
12.11.2013 14:58 8,2 C 7,2 C 86 % 1023,7 hPa 0,0 l/m 0 min 0 min 0,0 UV-I 60 W/m 10,3 km/h (2 Bft)
12.11.2013 15:00 8,2 C 6,7 C 87 % 1023,8 hPa 0,0 l/m 0 min 0 min 0,0 UV-I 49 W/m 2,6 km/h (1 Bft)
12.11.2013 15:02 8,1 C 6,7 C 88 % 1023,7 hPa 0,0 l/m 0 min 0 min 0,0 UV-I 40 W/m 2,6 km/h (1 Bft)
12.11.2013 15:06 8,0 C 6,7 C 89 % 1023,8 hPa 0,0 l/m 0 min 0 min 0,0 UV-I 32 W/m 5,1 km/h (1 Bft)
12.11.2013 15:08 7,9 C 6,7 C 89 % 1023,8 hPa 0,0 l/m 0 min 0 min 0,0 UV-I 28 W/m 0,0 km/h (0 Bft)
12.11.2013 15:10 7,8 C 6,7 C 90 % 1023,8 hPa 0,0 l/m 0 min 0 min 0,0 UV-I 23 W/m 5,1 km/h (1 Bft)
12.11.2013 15:12 7,8 C 6,7 C 90 % 1023,8 hPa 0,0 l/m 0 min 0 min 0,0 UV-I 18 W/m 0,0 km/h (0 Bft)
12.11.2013 15:14 7,7 C 6,1 C 90 % 1023,8 hPa 0,0 l/m 0 min 0 min 0,0 UV-I 18 W/m 0,0 km/h (0 Bft)
12.11.2013 15:16 7,7 C 6,1 C 91 % 1023,8 hPa 0,0 l/m 0 min 0 min 0,0 UV-I 18 W/m 0,0 km/h (0 Bft)
12.11.2013 15:18 7,6 C 6,1 C 91 % 1023,8 hPa 0,0 l/m 0 min 0 min 0,0 UV-I 21 W/m 5,1 km/h (1 Bft)
12.11.2013 15:20 7,6 C 6,1 C 91 % 1023,8 hPa 0,0 l/m 0 min 0 min 0,0 UV-I 21 W/m 2,6 km/h (1 Bft)
12.11.2013 15:22 7,6 C 6,1 C 92 % 1023,8 hPa 0,0 l/m 0 min 0 min 0,0 UV-I 19 W/m 0,0 km/h (0 Bft)
12.11.2013 15:24 7,5 C 6,1 C 92 % 1023,9 hPa 0,0 l/m 0 min 2 min 0,0 UV-I 18 W/m 0,0 km/h (0 Bft)
12.11.2013 15:26 7,5 C 6,1 C 92 % 1023,9 hPa 0,0 l/m 0 min 2 min 0,0 UV-I 18 W/m 0,0 km/h (0 Bft)
12.11.2013 15:28 7,4 C 6,1 C 92 % 1023,8 hPa 0,0 l/m 0 min 2 min 0,0 UV-I 18 W/m 0,0 km/h (0 Bft)
12.11.2013 15:30 7,4 C 6,1 C 93 % 1023,8 hPa 0,0 l/m 0 min 0 min 0,0 UV-I 21 W/m 0,0 km/h (0 Bft)
12.11.2013 15:32 7,4 C 6,1 C 93 % 1023,8 hPa 0,0 l/m 0 min 0 min 0,0 UV-I 25 W/m 0,0 km/h (0 Bft)
12.11.2013 15:34 7,4 C 6,1 C 93 % 1023,8 hPa 0,0 l/m 0 min 0 min 0,0 UV-I 25 W/m 0,0 km/h (0 Bft)
12.11.2013 15:36 7,4 C 6,1 C 93 % 1023,7 hPa 0,0 l/m 0 min 0 min 0,0 UV-I 21 W/m 0,0 km/h (0 Bft)
12.11.2013 15:38 7,4 C 6,1 C 93 % 1023,8 hPa 0,0 l/m 0 min 0 min 0,0 UV-I 21 W/m 0,0 km/h (0 Bft)
12.11.2013 15:40 7,3 C 6,1 C 94 % 1023,8 hPa 0,0 l/m 0 min 0 min 0,0 UV-I 19 W/m 0,0 km/h (0 Bft)
12.11.2013 15:42 7,3 C 6,1 C 94 % 1023,9 hPa 0,0 l/m 0 min 0 min 0,0 UV-I 19 W/m 0,0 km/h (0 Bft)
12.11.2013 15:44 7,3 C 6,1 C 94 % 1023,9 hPa 0,0 l/m 0 min 0 min 0,0 UV-I 19 W/m 0,0 km/h (0 Bft)
12.11.2013 15:46 7,3 C 6,1 C 94 % 1023,8 hPa 0,0 l/m 0 min 0 min 0,0 UV-I 18 W/m 0,0 km/h (0 Bft)
12.11.2013 15:48 7,3 C 6,1 C 94 % 1023,7 hPa 0,0 l/m 0 min 0 min 0,0 UV-I 18 W/m 0,0 km/h (0 Bft)
12.11.2013 15:50 7,3 C 6,1 C 94 % 1023,8 hPa 0,0 l/m 0 min 0 min 0,0 UV-I 18 W/m 0,0 km/h (0 Bft)
12.11.2013 15:52 7,3 C 6,1 C 94 % 1023,8 hPa 0,0 l/m 0 min 0 min 0,0 UV-I 14 W/m 0,0 km/h (0 Bft)
12.11.2013 15:54 7,3 C 6,1 C 94 % 1023,8 hPa 0,0 l/m 0 min 0 min 0,0 UV-I 14 W/m 0,0 km/h (0 Bft)
12.11.2013 15:56 7,3 C 6,1 C 94 % 1023,8 hPa 0,0 l/m 0 min 0 min 0,0 UV-I 12 W/m 0,0 km/h (0 Bft)
12.11.2013 15:58 7,3 C 6,1 C 95 % 1023,8 hPa 0,0 l/m 0 min 0 min 0,0 UV-I 14 W/m 0,0 km/h (0 Bft)
12.11.2013 16:00 7,2 C 6,1 C 95 % 1023,8 hPa 0,0 l/m 0 min 0 min 0,0 UV-I 14 W/m 0,0 km/h (0 Bft)
12.11.2013 16:02 7,2 C 6,1 C 95 % 1023,9 hPa 0,0 l/m 0 min 0 min 0,0 UV-I 14 W/m 0,0 km/h (0 Bft)
12.11.2013 16:06 7,2 C 6,1 C 95 % 1023,7 hPa 0,0 l/m 0 min 2 min 0,0 UV-I 14 W/m 0,0 km/h (0 Bft)
12.11.2013 16:08 7,3 C 6,1 C 95 % 1023,7 hPa 0,0 l/m 0 min 2 min 0,0 UV-I 14 W/m 0,0 km/h (0 Bft)
12.11.2013 16:10 7,3 C 6,1 C 95 % 1023,7 hPa 0,0 l/m 0 min 2 min 0,0 UV-I 12 W/m 5,1 km/h (1 Bft)
12.11.2013 16:12 7,3 C 6,1 C 95 % 1023,7 hPa 0,0 l/m 0 min 0 min 0,0 UV-I 12 W/m 2,6 km/h (1 Bft)
12.11.2013 16:14 7,2 C 6,1 C 95 % 1023,7 hPa 0,0 l/m 0 min 0 min 0,0 UV-I 11 W/m 2,6 km/h (1 Bft)
12.11.2013 16:16 7,2 C 6,1 C 95 % 1023,8 hPa 0,0 l/m 0 min 0 min 0,0 UV-I 9 W/m 0,0 km/h (0 Bft)
12.11.2013 16:18 7,2 C 6,1 C 95 % 1023,8 hPa 0,0 l/m 0 min 0 min 0,0 UV-I 7 W/m 0,0 km/h (0 Bft)
12.11.2013 16:20 7,2 C 6,1 C 95 % 1023,6 hPa 0,0 l/m 0 min 0 min 0,0 UV-I 9 W/m 0,0 km/h (0 Bft)
12.11.2013 16:22 7,2 C 6,1 C 95 % 1023,7 hPa 0,0 l/m 0 min 0 min 0,0 UV-I 9 W/m 0,0 km/h (0 Bft)
12.11.2013 16:24 7,2 C 6,1 C 95 % 1023,7 hPa 0,0 l/m 0 min 0 min 0,0 UV-I 9 W/m 0,0 km/h (0 Bft)
12.11.2013 16:26 7,2 C 6,1 C 96 % 1023,7 hPa 0,0 l/m 0 min 0 min 0,0 UV-I 9 W/m 0,0 km/h (0 Bft)
12.11.2013 16:28 7,2 C 6,1 C 96 % 1023,7 hPa 0,0 l/m 0 min 0 min 0,0 UV-I 7 W/m 0,0 km/h (0 Bft)
12.11.2013 16:30 7,2 C 6,1 C 96 % 1023,7 hPa 0,0 l/m 0 min 0 min 0,0 UV-I 7 W/m 2,6 km/h (1 Bft)
12.11.2013 16:32 7,2 C 6,1 C 96 % 1023,8 hPa 0,0 l/m 0 min 0 min 0,0 UV-I 7 W/m 5,1 km/h (1 Bft)
12.11.2013 16:34 7,2 C 6,1 C 96 % 1023,7 hPa 0,0 l/m 0 min 0 min 0,0 UV-I 5 W/m 0,0 km/h (0 Bft)
12.11.2013 16:36 7,2 C 6,1 C 96 % 1023,6 hPa 0,0 l/m 0 min 0 min 0,0 UV-I 5 W/m 0,0 km/h (0 Bft)
12.11.2013 16:38 7,2 C 6,1 C 96 % 1023,7 hPa 0,0 l/m 0 min 0 min 0,0 UV-I 0 W/m 0,0 km/h (0 Bft)
12.11.2013 16:40 7,2 C 6,1 C 96 % 1023,7 hPa 0,0 l/m 0 min 0 min 0,0 UV-I 0 W/m 0,0 km/h (0 Bft)
12.11.2013 16:42 7,2 C 6,1 C 96 % 1023,7 hPa 0,0 l/m 0 min 0 min 0,0 UV-I 0 W/m 0,0 km/h (0 Bft)
12.11.2013 16:44 7,2 C 6,1 C 96 % 1023,7 hPa 0,0 l/m 0 min 0 min 0,0 UV-I 0 W/m 0,0 km/h (0 Bft)
12.11.2013 16:46 7,2 C 6,1 C 96 % 1023,7 hPa 0,0 l/m 0 min 2 min 0,0 UV-I 0 W/m 0,0 km/h (0 Bft)
12.11.2013 16:48 7,2 C 6,1 C 96 % 1023,7 hPa 0,0 l/m 0 min 0 min 0,0 UV-I 0 W/m 0,0 km/h (0 Bft)
12.11.2013 16:50 7,2 C 6,1 C 96 % 1023,8 hPa 0,0 l/m 0 min 0 min 0,0 UV-I 0 W/m 0,0 km/h (0 Bft)
12.11.2013 16:52 7,2 C 6,1 C 96 % 1023,8 hPa 0,0 l/m 0 min 0 min 0,0 UV-I 0 W/m 10,3 km/h (2 Bft)
12.11.2013 16:54 7,2 C 6,1 C 96 % 1023,8 hPa 0,0 l/m 0 min 0 min 0,0 UV-I 0 W/m 0,0 km/h (0 Bft)
12.11.2013 16:56 7,2 C 6,1 C 96 % 1023,7 hPa 0,0 l/m 0 min 0 min 0,0 UV-I 0 W/m 7,7 km/h (2 Bft)
12.11.2013 16:58 7,2 C 6,1 C 96 % 1023,8 hPa 0,0 l/m 0 min 0 min 0,0 UV-I 0 W/m 2,6 km/h (1 Bft)
12.11.2013 17:00 7,2 C 6,1 C 96 % 1023,8 hPa 0,0 l/m 0 min 0 min 0,0 UV-I 0 W/m 0,0 km/h (0 Bft)
12.11.2013 17:02 7,2 C 6,1 C 96 % 1023,8 hPa 0,0 l/m 0 min 0 min 0,0 UV-I 0 W/m 0,0 km/h (0 Bft)
12.11.2013 17:06 7,2 C 6,1 C 96 % 1023,8 hPa 0,0 l/m 0 min 0 min 0,0 UV-I 0 W/m 2,6 km/h (1 Bft)
12.11.2013 17:08 7,2 C 6,1 C 96 % 1023,8 hPa 0,0 l/m 0 min 0 min 0,0 UV-I 0 W/m 0,0 km/h (0 Bft)
12.11.2013 17:10 7,2 C 6,1 C 96 % 1023,8 hPa 0,0 l/m 0 min 0 min 0,0 UV-I 0 W/m 0,0 km/h (0 Bft)
12.11.2013 17:12 7,2 C 6,1 C 96 % 1023,9 hPa 0,0 l/m 0 min 2 min 0,0 UV-I 0 W/m 0,0 km/h (0 Bft)
12.11.2013 17:14 7,2 C 6,1 C 96 % 1023,9 hPa 0,0 l/m 0 min 0 min 0,0 UV-I 0 W/m 0,0 km/h (0 Bft)
12.11.2013 17:16 7,2 C 6,1 C 96 % 1024,0 hPa 0,0 l/m 0 min 0 min 0,0 UV-I 0 W/m 0,0 km/h (0 Bft)
12.11.2013 17:18 7,2 C 6,1 C 96 % 1024,0 hPa 0,0 l/m 0 min 0 min 0,0 UV-I 0 W/m 0,0 km/h (0 Bft)
12.11.2013 17:20 7,2 C 6,1 C 96 % 1024,0 hPa 0,0 l/m 0 min 0 min 0,0 UV-I 0 W/m 0,0 km/h (0 Bft)
12.11.2013 17:22 7,2 C 6,1 C 96 % 1024,0 hPa 0,0 l/m 0 min 0 min 0,0 UV-I 0 W/m 0,0 km/h (0 Bft)
12.11.2013 17:24 7,2 C 6,1 C 96 % 1023,9 hPa 0,0 l/m 0 min 2 min 0,0 UV-I 0 W/m 0,0 km/h (0 Bft)
12.11.2013 17:26 7,2 C 6,1 C 96 % 1024,0 hPa 0,0 l/m 0 min 2 min 0,0 UV-I 0 W/m 0,0 km/h (0 Bft)
12.11.2013 17:30 7,2 C 6,1 C 97 % 1024,0 hPa 0,0 l/m 0 min 2 min 0,0 UV-I 0 W/m 0,0 km/h (0 Bft)
12.11.2013 17:35 7,2 C 6,1 C 97 % 1024,0 hPa 0,0 l/m 0 min 0 min 0,0 UV-I 0 W/m 0,0 km/h (0 Bft)
12.11.2013 17:40 7,2 C 6,1 C 97 % 1024,0 hPa 0,2 l/m 0 min 0 min 0,0 UV-I 0 W/m 0,0 km/h (0 Bft)
12.11.2013 17:45 7,2 C 6,1 C 97 % 1024,0 hPa 0,0 l/m 0 min 2 min 0,0 UV-I 0 W/m 0,0 km/h (0 Bft)
12.11.2013 17:50 7,2 C 6,1 C 97 % 1024,1 hPa 0,0 l/m 0 min 0 min 0,0 UV-I 0 W/m 0,0 km/h (0 Bft)
12.11.2013 17:55 7,2 C 6,1 C 97 % 1024,1 hPa 0,0 l/m 0 min 0 min 0,0 UV-I 0 W/m 0,0 km/h (0 Bft)
12.11.2013 17:56 7,2 C 6,1 C 97 % 1024,2 hPa 0,0 l/m 0 min 0 min 0,0 UV-I 0 W/m 0,0 km/h (0 Bft)
12.11.2013 17:58 7,2 C 6,1 C 97 % 1024,3 hPa 0,0 l/m 0 min 0 min 0,0 UV-I 0 W/m 0,0 km/h (0 Bft)
12.11.2013 18:00 7,2 C 6,1 C 97 % 1024,3 hPa 0,0 l/m 0 min 0 min 0,0 UV-I 0 W/m 0,0 km/h (0 Bft)
12.11.2013 18:02 7,2 C 6,1 C 97 % 1024,2 hPa 0,0 l/m 0 min 0 min 0,0 UV-I 0 W/m 0,0 km/h (0 Bft)
12.11.2013 18:05 7,2 C 6,1 C 97 % 1024,2 hPa 0,0 l/m 0 min 0 min 0,0 UV-I 0 W/m 0,0 km/h (0 Bft)
12.11.2013 18:08 7,2 C 6,1 C 97 % 1024,2 hPa 0,0 l/m 0 min 0 min 0,0 UV-I 0 W/m 0,0 km/h (0 Bft)
12.11.2013 18:10 7,2 C 6,1 C 97 % 1024,3 hPa 0,0 l/m 0 min 0 min 0,0 UV-I 0 W/m 0,0 km/h (0 Bft)
12.11.2013 18:15 7,2 C 6,1 C 97 % 1024,4 hPa 0,0 l/m 0 min 0 min 0,0 UV-I 0 W/m 0,0 km/h (0 Bft)
12.11.2013 18:20 7,2 C 6,1 C 97 % 1024,4 hPa 0,0 l/m 0 min 0 min 0,0 UV-I 0 W/m 0,0 km/h (0 Bft)
12.11.2013 18:26 7,2 C 6,1 C 97 % 1024,6 hPa 0,0 l/m 0 min 0 min 0,0 UV-I 0 W/m 0,0 km/h (0 Bft)
12.11.2013 18:28 7,2 C 6,1 C 97 % 1024,4 hPa 0,0 l/m 0 min 0 min 0,0 UV-I 0 W/m 0,0 km/h (0 Bft)
12.11.2013 18:30 7,2 C 6,1 C 97 % 1024,4 hPa 0,0 l/m 0 min 0 min 0,0 UV-I 0 W/m 0,0 km/h (0 Bft)
12.11.2013 18:32 7,2 C 6,1 C 97 % 1024,4 hPa 0,0 l/m 0 min 0 min 0,0 UV-I 0 W/m 2,6 km/h (1 Bft)
12.11.2013 18:34 7,2 C 6,1 C 97 % 1024,5 hPa 0,0 l/m 0 min 0 min 0,0 UV-I 0 W/m 0,0 km/h (0 Bft)
12.11.2013 18:36 7,2 C 6,1 C 97 % 1024,5 hPa 0,0 l/m 0 min 0 min 0,0 UV-I 0 W/m 0,0 km/h (0 Bft)
12.11.2013 18:56 7,2 C 6,1 C 97 % 1024,5 hPa 0,0 l/m 0 min 0 min 0,0 UV-I 0 W/m 0,0 km/h (0 Bft)
12.11.2013 19:00 7,2 C 6,1 C 97 % 1024,6 hPa 0,0 l/m 0 min 0 min 0,0 UV-I 0 W/m 0,0 km/h (0 Bft)
12.11.2013 19:02 7,2 C 6,1 C 97 % 1024,6 hPa 0,0 l/m 0 min 0 min 0,0 UV-I 0 W/m 0,0 km/h (0 Bft)
12.11.2013 19:06 7,2 C 6,1 C 97 % 1024,8 hPa 0,0 l/m 0 min 0 min 0,0 UV-I 0 W/m 0,0 km/h (0 Bft)
12.11.2013 19:08 7,2 C 6,1 C 97 % 1024,8 hPa 0,0 l/m 0 min 0 min 0,0 UV-I 0 W/m 0,0 km/h (0 Bft)
12.11.2013 19:10 7,2 C 6,1 C 97 % 1024,7 hPa 0,0 l/m 0 min 2 min 0,0 UV-I 0 W/m 0,0 km/h (0 Bft)
12.11.2013 19:12 7,2 C 6,1 C 97 % 1024,8 hPa 0,0 l/m 0 min 2 min 0,0 UV-I 0 W/m 0,0 km/h (0 Bft)
12.11.2013 19:14 7,2 C 6,1 C 97 % 1024,8 hPa 0,0 l/m 0 min 2 min 0,0 UV-I 0 W/m 0,0 km/h (0 Bft)
12.11.2013 19:16 7,2 C 6,1 C 97 % 1024,7 hPa 0,2 l/m 0 min 0 min 0,0 UV-I 0 W/m 0,0 km/h (0 Bft)
12.11.2013 19:18 7,1 C 6,1 C 97 % 1024,7 hPa 0,0 l/m 0 min 2 min 0,0 UV-I 0 W/m 0,0 km/h (0 Bft)
12.11.2013 19:20 7,1 C 6,1 C 97 % 1024,7 hPa 0,0 l/m 0 min 2 min 0,0 UV-I 0 W/m 0,0 km/h (0 Bft)
12.11.2013 19:22 7,2 C 6,1 C 97 % 1024,8 hPa 0,0 l/m 0 min 2 min 0,0 UV-I 0 W/m 0,0 km/h (0 Bft)
12.11.2013 19:24 7,2 C 6,1 C 97 % 1024,9 hPa 0,0 l/m 0 min 2 min 0,0 UV-I 0 W/m 2,6 km/h (1 Bft)
12.11.2013 19:26 7,2 C 6,1 C 97 % 1024,8 hPa 0,0 l/m 0 min 2 min 0,0 UV-I 0 W/m 0,0 km/h (0 Bft)
12.11.2013 19:28 7,2 C 6,1 C 97 % 1024,8 hPa 0,0 l/m 0 min 2 min 0,0 UV-I 0 W/m 0,0 km/h (0 Bft)
12.11.2013 19:30 7,2 C 6,1 C 97 % 1024,7 hPa 0,0 l/m 0 min 0 min 0,0 UV-I 0 W/m 0,0 km/h (0 Bft)
12.11.2013 19:32 7,2 C 6,1 C 97 % 1024,8 hPa 0,0 l/m 0 min 0 min 0,0 UV-I 0 W/m 0,0 km/h (0 Bft)
12.11.2013 19:34 7,2 C 6,1 C 97 % 1024,8 hPa 0,0 l/m 0 min 0 min 0,0 UV-I 0 W/m 0,0 km/h (0 Bft)
12.11.2013 19:36 7,2 C 6,1 C 97 % 1024,8 hPa 0,0 l/m 0 min 0 min 0,0 UV-I 0 W/m 0,0 km/h (0 Bft)
12.11.2013 19:38 7,2 C 6,1 C 97 % 1024,8 hPa 0,0 l/m 0 min 0 min 0,0 UV-I 0 W/m 0,0 km/h (0 Bft)
12.11.2013 19:40 7,2 C 6,1 C 97 % 1024,8 hPa 0,0 l/m 0 min 2 min 0,0 UV-I 0 W/m 0,0 km/h (0 Bft)
12.11.2013 19:42 7,2 C 6,1 C 97 % 1024,8 hPa 0,0 l/m 0 min 0 min 0,0 UV-I 0 W/m 0,0 km/h (0 Bft)
12.11.2013 19:44 7,2 C 6,1 C 97 % 1024,8 hPa 0,0 l/m 0 min 0 min 0,0 UV-I 0 W/m 0,0 km/h (0 Bft)
12.11.2013 19:46 7,2 C 6,1 C 97 % 1024,9 hPa 0,0 l/m 0 min 0 min 0,0 UV-I 0 W/m 0,0 km/h (0 Bft)
12.11.2013 19:48 7,2 C 6,1 C 97 % 1024,9 hPa 0,0 l/m 0 min 0 min 0,0 UV-I 0 W/m 0,0 km/h (0 Bft)
12.11.2013 19:50 7,2 C 6,1 C 97 % 1024,9 hPa 0,0 l/m 0 min 0 min 0,0 UV-I 0 W/m 0,0 km/h (0 Bft)
12.11.2013 19:52 7,2 C 6,1 C 97 % 1025,0 hPa 0,0 l/m 0 min 0 min 0,0 UV-I 0 W/m 0,0 km/h (0 Bft)
12.11.2013 19:54 7,2 C 6,1 C 97 % 1025,1 hPa 0,0 l/m 0 min 0 min 0,0 UV-I 0 W/m 0,0 km/h (0 Bft)
12.11.2013 19:56 7,2 C 6,1 C 97 % 1025,0 hPa 0,0 l/m 0 min 0 min 0,0 UV-I 0 W/m 0,0 km/h (0 Bft)
12.11.2013 19:58 7,2 C 6,1 C 97 % 1025,2 hPa 0,0 l/m 0 min 0 min 0,0 UV-I 0 W/m 0,0 km/h (0 Bft)
12.11.2013 20:00 7,2 C 6,1 C 97 % 1025,1 hPa 0,0 l/m 0 min 0 min 0,0 UV-I 0 W/m 0,0 km/h (0 Bft)
12.11.2013 20:02 7,2 C 6,1 C 97 % 1025,1 hPa 0,2 l/m 0 min 2 min 0,0 UV-I 0 W/m 0,0 km/h (0 Bft)
12.11.2013 20:06 7,2 C 6,1 C 97 % 1025,2 hPa 0,0 l/m 0 min 2 min 0,0 UV-I 0 W/m 0,0 km/h (0 Bft)
12.11.2013 20:08 7,2 C 6,1 C 97 % 1025,1 hPa 0,0 l/m 0 min 2 min 0,0 UV-I 0 W/m 0,0 km/h (0 Bft)
12.11.2013 20:10 7,2 C 6,1 C 97 % 1025,3 hPa 0,0 l/m 0 min 2 min 0,0 UV-I 0 W/m 0,0 km/h (0 Bft)
12.11.2013 20:12 7,2 C 6,1 C 97 % 1025,3 hPa 0,0 l/m 0 min 0 min 0,0 UV-I 0 W/m 0,0 km/h (0 Bft)
12.11.2013 20:14 7,2 C 6,1 C 97 % 1025,3 hPa 0,0 l/m 0 min 2 min 0,0 UV-I 0 W/m 0,0 km/h (0 Bft)
12.11.2013 20:16 7,2 C 6,1 C 97 % 1025,4 hPa 0,0 l/m 0 min 0 min 0,0 UV-I 0 W/m 0,0 km/h (0 Bft)
12.11.2013 20:18 7,2 C 6,1 C 97 % 1025,5 hPa 0,0 l/m 0 min 0 min 0,0 UV-I 0 W/m 0,0 km/h (0 Bft)
12.11.2013 20:20 7,2 C 6,1 C 97 % 1025,4 hPa 0,0 l/m 0 min 0 min 0,0 UV-I 0 W/m 0,0 km/h (0 Bft)
12.11.2013 20:22 7,2 C 6,1 C 97 % 1025,4 hPa 0,0 l/m 0 min 0 min 0,0 UV-I 0 W/m 0,0 km/h (0 Bft)
12.11.2013 20:24 7,2 C 6,1 C 97 % 1025,4 hPa 0,0 l/m 0 min 0 min 0,0 UV-I 0 W/m 0,0 km/h (0 Bft)
12.11.2013 20:26 7,2 C 6,1 C 97 % 1025,4 hPa 0,0 l/m 0 min 0 min 0,0 UV-I 0 W/m 0,0 km/h (0 Bft)
12.11.2013 20:28 7,2 C 6,1 C 97 % 1025,5 hPa 0,0 l/m 0 min 0 min 0,0 UV-I 0 W/m 0,0 km/h (0 Bft)
12.11.2013 20:30 7,2 C 6,1 C 97 % 1025,6 hPa 0,0 l/m 0 min 0 min 0,0 UV-I 0 W/m 0,0 km/h (0 Bft)
12.11.2013 20:32 7,2 C 6,1 C 97 % 1025,7 hPa 0,0 l/m 0 min 0 min 0,0 UV-I 0 W/m 0,0 km/h (0 Bft)
12.11.2013 20:34 7,2 C 6,1 C 97 % 1025,8 hPa 0,0 l/m 0 min 0 min 0,0 UV-I 0 W/m 0,0 km/h (0 Bft)
12.11.2013 20:36 7,2 C 6,1 C 97 % 1025,8 hPa 0,0 l/m 0 min 0 min 0,0 UV-I 0 W/m 0,0 km/h (0 Bft)
12.11.2013 20:38 7,2 C 6,1 C 97 % 1025,8 hPa 0,0 l/m 0 min 0 min 0,0 UV-I 0 W/m 0,0 km/h (0 Bft)
12.11.2013 20:40 7,3 C 6,7 C 97 % 1025,8 hPa 0,0 l/m 0 min 0 min 0,0 UV-I 0 W/m 0,0 km/h (0 Bft)
12.11.2013 20:42 7,3 C 6,7 C 97 % 1025,7 hPa 0,0 l/m 0 min 2 min 0,0 UV-I 0 W/m 0,0 km/h (0 Bft)
12.11.2013 20:44 7,3 C 6,7 C 97 % 1025,7 hPa 0,0 l/m 0 min 2 min 0,0 UV-I 0 W/m 0,0 km/h (0 Bft)
12.11.2013 20:46 7,3 C 6,7 C 97 % 1025,9 hPa 0,0 l/m 0 min 2 min 0,0 UV-I 0 W/m 0,0 km/h (0 Bft)
12.11.2013 20:48 7,3 C 6,7 C 97 % 1025,8 hPa 0,2 l/m 0 min 2 min 0,0 UV-I 0 W/m 0,0 km/h (0 Bft)
12.11.2013 20:50 7,3 C 6,7 C 97 % 1025,9 hPa 0,0 l/m 0 min 2 min 0,0 UV-I 0 W/m 0,0 km/h (0 Bft)
12.11.2013 20:52 7,3 C 6,7 C 97 % 1025,9 hPa 0,0 l/m 0 min 2 min 0,0 UV-I 0 W/m 0,0 km/h (0 Bft)
12.11.2013 20:54 7,3 C 6,7 C 97 % 1025,9 hPa 0,0 l/m 0 min 2 min 0,0 UV-I 0 W/m 0,0 km/h (0 Bft)
12.11.2013 20:56 7,3 C 6,7 C 97 % 1026,1 hPa 0,0 l/m 0 min 2 min 0,0 UV-I 0 W/m 0,0 km/h (0 Bft)
12.11.2013 20:58 7,3 C 6,7 C 97 % 1026,1 hPa 0,0 l/m 0 min 2 min 0,0 UV-I 0 W/m 0,0 km/h (0 Bft)
12.11.2013 21:00 7,4 C 6,7 C 97 % 1026,1 hPa 0,0 l/m 0 min 0 min 0,0 UV-I 0 W/m 0,0 km/h (0 Bft)
12.11.2013 21:02 7,4 C 6,7 C 97 % 1026,1 hPa 0,0 l/m 0 min 0 min 0,0 UV-I 0 W/m 0,0 km/h (0 Bft)
12.11.2013 21:06 7,4 C 6,7 C 97 % 1026,2 hPa 0,0 l/m 0 min 2 min 0,0 UV-I 0 W/m 0,0 km/h (0 Bft)
12.11.2013 21:08 7,4 C 6,7 C 97 % 1026,2 hPa 0,0 l/m 0 min 2 min 0,0 UV-I 0 W/m 0,0 km/h (0 Bft)
12.11.2013 21:10 7,4 C 6,7 C 98 % 1026,2 hPa 0,0 l/m 0 min 2 min 0,0 UV-I 0 W/m 0,0 km/h (0 Bft)
12.11.2013 21:12 7,4 C 6,7 C 98 % 1026,3 hPa 0,0 l/m 0 min 2 min 0,0 UV-I 0 W/m 0,0 km/h (0 Bft)
12.11.2013 21:14 7,5 C 6,7 C 98 % 1026,3 hPa 0,0 l/m 0 min 2 min 0,0 UV-I 0 W/m 0,0 km/h (0 Bft)
12.11.2013 21:16 7,5 C 6,7 C 98 % 1026,2 hPa 0,0 l/m 0 min 2 min 0,0 UV-I 0 W/m 2,6 km/h (1 Bft)
12.11.2013 21:18 7,5 C 6,7 C 98 % 1026,3 hPa 0,0 l/m 0 min 2 min 0,0 UV-I 0 W/m 0,0 km/h (0 Bft)
12.11.2013 21:20 7,6 C 6,7 C 98 % 1026,3 hPa 0,0 l/m 0 min 0 min 0,0 UV-I 0 W/m 5,1 km/h (1 Bft)
12.11.2013 21:22 7,6 C 6,7 C 97 % 1026,3 hPa 0,0 l/m 0 min 0 min 0,0 UV-I 0 W/m 2,6 km/h (1 Bft)
12.11.2013 21:24 7,6 C 6,7 C 97 % 1026,4 hPa 0,0 l/m 0 min 2 min 0,0 UV-I 0 W/m 2,6 km/h (1 Bft)
12.11.2013 21:26 7,6 C 6,7 C 97 % 1026,4 hPa 0,0 l/m 0 min 2 min 0,0 UV-I 0 W/m 0,0 km/h (0 Bft)
12.11.2013 21:28 7,6 C 6,7 C 97 % 1026,5 hPa 0,0 l/m 0 min 2 min 0,0 UV-I 0 W/m 0,0 km/h (0 Bft)
12.11.2013 21:30 7,6 C 6,7 C 97 % 1026,5 hPa 0,0 l/m 0 min 2 min 0,0 UV-I 0 W/m 2,6 km/h (1 Bft)
12.11.2013 21:32 7,6 C 6,7 C 98 % 1026,5 hPa 0,0 l/m 0 min 2 min 0,0 UV-I 0 W/m 0,0 km/h (0 Bft)
12.11.2013 21:34 7,6 C 6,7 C 98 % 1026,4 hPa 0,0 l/m 0 min 0 min 0,0 UV-I 0 W/m 0,0 km/h (0 Bft)
12.11.2013 21:36 7,6 C 6,7 C 98 % 1026,5 hPa 0,0 l/m 0 min 0 min 0,0 UV-I 0 W/m 0,0 km/h (0 Bft)
12.11.2013 21:38 7,6 C 6,7 C 98 % 1026,6 hPa 0,0 l/m 0 min 2 min 0,0 UV-I 0 W/m 0,0 km/h (0 Bft)
12.11.2013 21:40 7,7 C 6,7 C 98 % 1026,6 hPa 0,0 l/m 0 min 0 min 0,0 UV-I 0 W/m 2,6 km/h (1 Bft)
12.11.2013 21:42 7,7 C 6,7 C 98 % 1026,6 hPa 0,0 l/m 0 min 0 min 0,0 UV-I 0 W/m 0,0 km/h (0 Bft)
12.11.2013 21:44 7,7 C 6,7 C 98 % 1026,7 hPa 0,0 l/m 0 min 0 min 0,0 UV-I 0 W/m 0,0 km/h (0 Bft)
12.11.2013 21:46 7,7 C 6,7 C 98 % 1026,7 hPa 0,0 l/m 0 min 0 min 0,0 UV-I 0 W/m 0,0 km/h (0 Bft)
12.11.2013 21:48 7,7 C 6,7 C 98 % 1026,7 hPa 0,0 l/m 0 min 0 min 0,0 UV-I 0 W/m 0,0 km/h (0 Bft)
12.11.2013 21:50 7,7 C 6,7 C 98 % 1026,8 hPa 0,0 l/m 0 min 0 min 0,0 UV-I 0 W/m 0,0 km/h (0 Bft)
12.11.2013 21:58 7,7 C 6,7 C 98 % 1026,9 hPa 0,0 l/m 0 min 0 min 0,0 UV-I 0 W/m 0,0 km/h (0 Bft)
12.11.2013 22:00 7,7 C 6,7 C 98 % 1026,9 hPa 0,0 l/m 0 min 0 min 0,0 UV-I 0 W/m 0,0 km/h (0 Bft)
12.11.2013 22:02 7,7 C 6,7 C 98 % 1026,9 hPa 0,0 l/m 0 min 0 min 0,0 UV-I 0 W/m 0,0 km/h (0 Bft)
12.11.2013 22:06 7,7 C 6,7 C 98 % 1026,9 hPa 0,0 l/m 0 min 0 min 0,0 UV-I 0 W/m 0,0 km/h (0 Bft)
12.11.2013 22:08 7,7 C 6,7 C 98 % 1026,8 hPa 0,0 l/m 0 min 0 min 0,0 UV-I 0 W/m 0,0 km/h (0 Bft)
12.11.2013 22:10 7,7 C 6,7 C 98 % 1026,9 hPa 0,0 l/m 0 min 0 min 0,0 UV-I 0 W/m 0,0 km/h (0 Bft)
12.11.2013 22:12 7,7 C 6,7 C 98 % 1026,9 hPa 0,0 l/m 0 min 0 min 0,0 UV-I 0 W/m 0,0 km/h (0 Bft)
12.11.2013 22:14 7,7 C 6,7 C 98 % 1026,9 hPa 0,0 l/m 0 min 0 min 0,0 UV-I 0 W/m 0,0 km/h (0 Bft)
12.11.2013 22:16 7,7 C 6,7 C 98 % 1026,9 hPa 0,0 l/m 0 min 2 min 0,0 UV-I 0 W/m 0,0 km/h (0 Bft)
12.11.2013 22:18 7,7 C 6,7 C 98 % 1026,9 hPa 0,2 l/m 0 min 2 min 0,0 UV-I 0 W/m 0,0 km/h (0 Bft)
12.11.2013 22:20 7,7 C 6,7 C 98 % 1027,0 hPa 0,0 l/m 0 min 2 min 0,0 UV-I 0 W/m 0,0 km/h (0 Bft)
12.11.2013 22:22 7,7 C 6,7 C 98 % 1027,0 hPa 0,0 l/m 0 min 0 min 0,0 UV-I 0 W/m 0,0 km/h (0 Bft)
12.11.2013 22:24 7,7 C 6,7 C 98 % 1027,0 hPa 0,0 l/m 0 min 0 min 0,0 UV-I 0 W/m 0,0 km/h (0 Bft)
12.11.2013 22:26 7,7 C 6,7 C 98 % 1027,0 hPa 0,0 l/m 0 min 0 min 0,0 UV-I 0 W/m 0,0 km/h (0 Bft)
12.11.2013 22:28 7,7 C 6,7 C 98 % 1027,0 hPa 0,0 l/m 0 min 0 min 0,0 UV-I 0 W/m 0,0 km/h (0 Bft)
12.11.2013 22:30 7,7 C 6,7 C 98 % 1027,1 hPa 0,0 l/m 0 min 0 min 0,0 UV-I 0 W/m 0,0 km/h (0 Bft)
12.11.2013 22:32 7,7 C 6,7 C 98 % 1027,1 hPa 0,0 l/m 0 min 0 min 0,0 UV-I 0 W/m 0,0 km/h (0 Bft)
12.11.2013 22:35 7,7 C 6,7 C 98 % 1027,0 hPa 0,0 l/m 0 min 0 min 0,0 UV-I 0 W/m 0,0 km/h (0 Bft)
12.11.2013 22:40 7,7 C 6,7 C 98 % 1027,3 hPa 0,0 l/m 0 min 0 min 0,0 UV-I 0 W/m 0,0 km/h (0 Bft)
12.11.2013 22:45 7,7 C 6,7 C 98 % 1027,2 hPa 0,0 l/m 0 min 0 min 0,0 UV-I 0 W/m 0,0 km/h (0 Bft)
12.11.2013 22:50 7,7 C 6,7 C 98 % 1027,1 hPa 0,0 l/m 0 min 0 min 0,0 UV-I 0 W/m 0,0 km/h (0 Bft)
12.11.2013 22:52 7,7 C 6,7 C 98 % 1027,2 hPa 0,0 l/m 0 min 0 min 0,0 UV-I 0 W/m 0,0 km/h (0 Bft)
12.11.2013 22:54 7,7 C 6,7 C 98 % 1027,2 hPa 0,0 l/m 0 min 0 min 0,0 UV-I 0 W/m 0,0 km/h (0 Bft)
12.11.2013 22:56 7,7 C 6,7 C 98 % 1027,3 hPa 0,0 l/m 0 min 0 min 0,0 UV-I 0 W/m 0,0 km/h (0 Bft)
12.11.2013 22:58 7,7 C 6,7 C 98 % 1027,3 hPa 0,0 l/m 0 min 0 min 0,0 UV-I 0 W/m 0,0 km/h (0 Bft)
12.11.2013 23:00 7,7 C 6,7 C 98 % 1027,4 hPa 0,0 l/m 0 min 0 min 0,0 UV-I 0 W/m 0,0 km/h (0 Bft)
12.11.2013 23:02 7,7 C 6,7 C 98 % 1027,5 hPa 0,0 l/m 0 min 0 min 0,0 UV-I 0 W/m 0,0 km/h (0 Bft)
12.11.2013 23:06 7,7 C 6,7 C 98 % 1027,5 hPa 0,0 l/m 0 min 0 min 0,0 UV-I 0 W/m 0,0 km/h (0 Bft)
12.11.2013 23:08 7,7 C 6,7 C 98 % 1027,6 hPa 0,0 l/m 0 min 2 min 0,0 UV-I 0 W/m 0,0 km/h (0 Bft)
12.11.2013 23:10 7,7 C 6,7 C 98 % 1027,6 hPa 0,0 l/m 0 min 0 min 0,0 UV-I 0 W/m 0,0 km/h (0 Bft)
12.11.2013 23:12 7,7 C 6,7 C 98 % 1027,6 hPa 0,0 l/m 0 min 0 min 0,0 UV-I 0 W/m 0,0 km/h (0 Bft)
12.11.2013 23:14 7,7 C 6,7 C 98 % 1027,6 hPa 0,0 l/m 0 min 0 min 0,0 UV-I 0 W/m 0,0 km/h (0 Bft)
12.11.2013 23:16 7,7 C 6,7 C 98 % 1027,6 hPa 0,0 l/m 0 min 0 min 0,0 UV-I 0 W/m 0,0 km/h (0 Bft)
12.11.2013 23:18 7,7 C 6,7 C 98 % 1027,6 hPa 0,0 l/m 0 min 0 min 0,0 UV-I 0 W/m 0,0 km/h (0 Bft)
12.11.2013 23:20 7,7 C 6,7 C 98 % 1027,7 hPa 0,0 l/m 0 min 0 min 0,0 UV-I 0 W/m 0,0 km/h (0 Bft)
12.11.2013 23:22 7,7 C 6,7 C 98 % 1027,6 hPa 0,0 l/m 0 min 0 min 0,0 UV-I 0 W/m 0,0 km/h (0 Bft)
12.11.2013 23:24 7,7 C 6,7 C 98 % 1027,6 hPa 0,0 l/m 0 min 0 min 0,0 UV-I 0 W/m 2,6 km/h (1 Bft)
12.11.2013 23:26 7,7 C 6,7 C 98 % 1027,7 hPa 0,0 l/m 0 min 0 min 0,0 UV-I 0 W/m 2,6 km/h (1 Bft)
12.11.2013 23:28 7,8 C 6,7 C 98 % 1027,7 hPa 0,0 l/m 0 min 0 min 0,0 UV-I 0 W/m 0,0 km/h (0 Bft)
12.11.2013 23:30 7,8 C 6,7 C 98 % 1027,7 hPa 0,0 l/m 0 min 0 min 0,0 UV-I 0 W/m 2,6 km/h (1 Bft)
12.11.2013 23:32 7,8 C 6,7 C 98 % 1027,8 hPa 0,0 l/m 0 min 0 min 0,0 UV-I 0 W/m 0,0 km/h (0 Bft)
12.11.2013 23:34 7,8 C 6,7 C 98 % 1027,9 hPa 0,0 l/m 0 min 0 min 0,0 UV-I 0 W/m 0,0 km/h (0 Bft)
12.11.2013 23:36 7,8 C 6,7 C 98 % 1027,9 hPa 0,0 l/m 0 min 0 min 0,0 UV-I 0 W/m 2,6 km/h (1 Bft)
12.11.2013 23:38 7,8 C 6,7 C 98 % 1027,9 hPa 0,0 l/m 0 min 0 min 0,0 UV-I 0 W/m 0,0 km/h (0 Bft)
12.11.2013 23:40 7,8 C 6,7 C 98 % 1028,0 hPa 0,0 l/m 0 min 0 min 0,0 UV-I 0 W/m 5,1 km/h (1 Bft)
12.11.2013 23:42 7,8 C 6,7 C 98 % 1028,0 hPa 0,0 l/m 0 min 0 min 0,0 UV-I 0 W/m 0,0 km/h (0 Bft)
12.11.2013 23:44 7,9 C 6,7 C 98 % 1028,0 hPa 0,0 l/m 0 min 0 min 0,0 UV-I 0 W/m 0,0 km/h (0 Bft)
12.11.2013 23:46 7,9 C 6,7 C 98 % 1028,0 hPa 0,0 l/m 0 min 0 min 0,0 UV-I 0 W/m 0,0 km/h (0 Bft)
12.11.2013 23:48 7,9 C 6,7 C 98 % 1028,0 hPa 0,0 l/m 0 min 0 min 0,0 UV-I 0 W/m 2,6 km/h (1 Bft)
12.11.2013 23:50 7,9 C 6,7 C 98 % 1028,0 hPa 0,0 l/m 0 min 0 min 0,0 UV-I 0 W/m 0,0 km/h (0 Bft)
12.11.2013 23:52 7,9 C 6,7 C 98 % 1028,0 hPa 0,0 l/m 0 min 0 min 0,0 UV-I 0 W/m 0,0 km/h (0 Bft)
12.11.2013 23:54 7,9 C 6,7 C 98 % 1028,0 hPa 0,0 l/m 0 min 0 min 0,0 UV-I 0 W/m 0,0 km/h (0 Bft)
12.11.2013 23:56 7,9 C 6,7 C 98 % 1028,1 hPa 0,0 l/m 0 min 0 min 0,0 UV-I 0 W/m 0,0 km/h (0 Bft)
12.11.2013 23:58 7,9 C 6,7 C 98 % 1028,1 hPa 0,0 l/m 0 min 0 min 0,0 UV-I 0 W/m 0,0 km/h (0 Bft)
_ Min-Zeit 05:18 04:44 11:32 13:12 - - - - - 00:36
Minimum _ 3,7 C 2,8 C 75 % 1023,4 hPa - - - - - 0,0 km/h (0 Bft)
_ Max-Zeit 11:44 11:08 21:10 00:00 17:40 11:08 13:38 00:00 11:08 11:54
Maximum _ 8,9 C 8,3 C 98 % 1028,4 hPa 0,2 l/m 2 min 2 min 0,0 UV-I 192 W/m 25,7 km/h
S-SW (4 Bft)
Durchschnitt _ 6,3 C 5,4 C 91 % 1025,3 hPa #1,0 l/m #4 min. #1:54 h 0,0 UV-I 66 W/m 7,1 km/h (2 Bft)
© 2013 W. Hausmann